NOAA Web Site Link Tides and Currents Home Page Transparent placeholder image

PORTS® Data Listing: 8632837 Rappahannock Light, VA

CO-OPS RAW PORTS DATA

************************      PRELIMINARY DATA      ************************** 

     THIS RAW DATA HAS NOT BEEN SUBJECT TO THE NATIONAL OCEAN SERVICE'S        
     QUALITY CONTROL OR QUALITY ASSURANCE PROCEDURES AND DOES NOT MEET         
     THE CRITERIA AND STANDARDS OF OFFICIAL NATIONAL OCEAN SERVICE             
     DATA.  IT IS RELEASED FOR LIMITED PUBLIC USE AS PRELIMINARY DATA TO       
     BE USED ONLY WITH APPROPRIATE CAUTION.                                    

************************      PRELIMINARY DATA      ************************** 


       CD   -   Calendar date
       T    -   Time
       TZ   -   Timezone
       PW   -   Predicted water level (feet above MLLW)
       OW   -   Observed water level (feet above MLLW)
       WS   -   Wind speed (knots)
       WD   -   Wind direction (degrees true)
       WG   -   Wind gust (knots)
       AT   -   Air temperature (degrees farenheit)
       WT   -   Water temperature (degrees farenheit)
       AP   -   Air pressure (millibars)
       SA   -   Salinty (PSU - Practical Salinity Units)
       SG   -   Specific gravity
       RH   -   Relative humidity
       AG   -   Air gap (feet)
       VI   -   Visibility (nautical miles)

       ** NOTE **
       A variable that has its data fields filled with "9"s, indicates that
       data was not collected for that sample period.
       **********


STATION NAME: Rappahannock Light (8632837)
****************************************************************************************************
    CD       T    TZ    PW     OW    WS   WD   WG    AT    WT    AP    SA    SG     RH    AG   VI
****************************************************************************************************
2019/05/23 09:24 EDT  -99.99 -99.99   17  179   20 -99.9 -99.9 1024.6 -9.9 -9.999 -99.9 -99.99 -9.99
2019/05/23 09:30 EDT  -99.99 -99.99   18  184   20 -99.9 -99.9 1024.6 -9.9 -9.999 -99.9 -99.99 -9.99
2019/05/23 09:36 EDT  -99.99 -99.99   18  184   20 -99.9 -99.9 1024.6 -9.9 -9.999 -99.9 -99.99 -9.99
2019/05/23 09:42 EDT  -99.99 -99.99   18  183   20 -99.9 -99.9 1024.5 -9.9 -9.999 -99.9 -99.99 -9.99
2019/05/23 09:48 EDT  -99.99 -99.99   17  183   20 -99.9 -99.9 1024.5 -9.9 -9.999 -99.9 -99.99 -9.99
2019/05/23 09:54 EDT  -99.99 -99.99   17  180   19 -99.9 -99.9 1024.3 -9.9 -9.999 -99.9 -99.99 -9.99
2019/05/23 10:00 EDT  -99.99 -99.99   17  181   19 -99.9 -99.9 1024.3 -9.9 -9.999 -99.9 -99.99 -9.99
2019/05/23 10:06 EDT  -99.99 -99.99   17  179   20 -99.9 -99.9 1024.2 -9.9 -9.999 -99.9 -99.99 -9.99
2019/05/23 10:12 EDT  -99.99 -99.99   18  182   20 -99.9 -99.9 1024.0 -9.9 -9.999 -99.9 -99.99 -9.99
2019/05/23 10:18 EDT  -99.99 -99.99   17  179   19 -99.9 -99.9 1023.9 -9.9 -9.999 -99.9 -99.99 -9.99
2019/05/23 10:24 EDT  -99.99 -99.99   17  178   19 -99.9 -99.9 1023.9 -9.9 -9.999 -99.9 -99.99 -9.99
2019/05/23 10:30 EDT  -99.99 -99.99   16  179   20 -99.9 -99.9 1023.8 -9.9 -9.999 -99.9 -99.99 -9.99
2019/05/23 10:36 EDT  -99.99 -99.99   18  181   21 -99.9 -99.9 1023.7 -9.9 -9.999 -99.9 -99.99 -9.99
2019/05/23 10:42 EDT  -99.99 -99.99   18  180   20 -99.9 -99.9 1023.7 -9.9 -9.999 -99.9 -99.99 -9.99
2019/05/23 10:48 EDT  -99.99 -99.99   17  181   19 -99.9 -99.9 1023.6 -9.9 -9.999 -99.9 -99.99 -9.99
2019/05/23 10:54 EDT  -99.99 -99.99   17  180   20 -99.9 -99.9 1023.5 -9.9 -9.999 -99.9 -99.99 -9.99
2019/05/23 11:00 EDT  -99.99 -99.99   17  178   19 -99.9 -99.9 1023.4 -9.9 -9.999 -99.9 -99.99 -9.99
2019/05/23 11:06 EDT  -99.99 -99.99   17  178   19 -99.9 -99.9 1023.3 -9.9 -9.999 -99.9 -99.99 -9.99
2019/05/23 11:12 EDT  -99.99 -99.99   17  181   19 -99.9 -99.9 1023.3 -9.9 -9.999 -99.9 -99.99 -9.99
2019/05/23 11:18 EDT  -99.99 -99.99   17  182   20 -99.9 -99.9 1023.3 -9.9 -9.999 -99.9 -99.99 -9.99
2019/05/23 11:24 EDT  -99.99 -99.99   16  179   18 -99.9 -99.9 1023.4 -9.9 -9.999 -99.9 -99.99 -9.99
2019/05/23 11:30 EDT  -99.99 -99.99   17  181   20 -99.9 -99.9 1023.3 -9.9 -9.999 -99.9 -99.99 -9.99
2019/05/23 11:36 EDT  -99.99 -99.99   17  180   19 -99.9 -99.9 1023.3 -9.9 -9.999 -99.9 -99.99 -9.99
2019/05/23 11:42 EDT  -99.99 -99.99   17  180   20 -99.9 -99.9 1023.2 -9.9 -9.999 -99.9 -99.99 -9.99
2019/05/23 11:48 EDT  -99.99 -99.99   18  179   20 -99.9 -99.9 1023.3 -9.9 -9.999 -99.9 -99.99 -9.99
2019/05/23 11:54 EDT  -99.99 -99.99   18  179   20 -99.9 -99.9 1023.2 -9.9 -9.999 -99.9 -99.99 -9.99
2019/05/23 12:00 EDT  -99.99 -99.99   17  177   19 -99.9 -99.9 1023.1 -9.9 -9.999 -99.9 -99.99 -9.99
2019/05/23 12:06 EDT  -99.99 -99.99   17  177   19 -99.9 -99.9 1023.1 -9.9 -9.999 -99.9 -99.99 -9.99
2019/05/23 12:12 EDT  -99.99 -99.99   17  174   19 -99.9 -99.9 1022.9 -9.9 -9.999 -99.9 -99.99 -9.99
2019/05/23 12:18 EDT  -99.99 -99.99   18  175   20 -99.9 -99.9 1022.8 -9.9 -9.999 -99.9 -99.99 -9.99
2019/05/23 12:24 EDT  -99.99 -99.99   17  174   19 -99.9 -99.9 1022.7 -9.9 -9.999 -99.9 -99.99 -9.99
2019/05/23 12:30 EDT  -99.99 -99.99   17  178   20 -99.9 -99.9 1022.5 -9.9 -9.999 -99.9 -99.99 -9.99
2019/05/23 12:36 EDT  -99.99 -99.99   17  178   19 -99.9 -99.9 1022.5 -9.9 -9.999 -99.9 -99.99 -9.99
2019/05/23 12:42 EDT  -99.99 -99.99   17  179   18 -99.9 -99.9 1022.3 -9.9 -9.999 -99.9 -99.99 -9.99
2019/05/23 12:48 EDT  -99.99 -99.99   17  178   19 -99.9 -99.9 1022.1 -9.9 -9.999 -99.9 -99.99 -9.99
2019/05/23 12:54 EDT  -99.99 -99.99   17  179   19 -99.9 -99.9 1022.0 -9.9 -9.999 -99.9 -99.99 -9.99
2019/05/23 13:00 EDT  -99.99 -99.99   16  178   17 -99.9 -99.9 1021.7 -9.9 -9.999 -99.9 -99.99 -9.99
2019/05/23 13:06 EDT  -99.99 -99.99   16  178   18 -99.9 -99.9 1021.5 -9.9 -9.999 -99.9 -99.99 -9.99
2019/05/23 13:12 EDT  -99.99 -99.99   16  179   18 -99.9 -99.9 1021.4 -9.9 -9.999 -99.9 -99.99 -9.99
2019/05/23 13:18 EDT  -99.99 -99.99   17  180   19 -99.9 -99.9 1021.2 -9.9 -9.999 -99.9 -99.99 -9.99
2019/05/23 13:24 EDT  -99.99 -99.99   16  177   18 -99.9 -99.9 1021.2 -9.9 -9.999 -99.9 -99.99 -9.99
2019/05/23 13:30 EDT  -99.99 -99.99   17  176   18 -99.9 -99.9 1021.0 -9.9 -9.999 -99.9 -99.99 -9.99
2019/05/23 13:36 EDT  -99.99 -99.99   17  176   18 -99.9 -99.9 1020.9 -9.9 -9.999 -99.9 -99.99 -9.99
2019/05/23 13:42 EDT  -99.99 -99.99   15  175   17 -99.9 -99.9 1020.8 -9.9 -9.999 -99.9 -99.99 -9.99
2019/05/23 13:48 EDT  -99.99 -99.99   14  175   15 -99.9 -99.9 1020.6 -9.9 -9.999 -99.9 -99.99 -9.99
2019/05/23 13:54 EDT  -99.99 -99.99   15  177   15 -99.9 -99.9 1020.5 -9.9 -9.999 -99.9 -99.99 -9.99
2019/05/23 14:00 EDT  -99.99 -99.99   14  175   16 -99.9 -99.9 1020.5 -9.9 -9.999 -99.9 -99.99 -9.99
2019/05/23 14:06 EDT  -99.99 -99.99   15  176   17 -99.9 -99.9 1020.4 -9.9 -9.999 -99.9 -99.99 -9.99
2019/05/23 14:12 EDT  -99.99 -99.99   15  176   16 -99.9 -99.9 1020.3 -9.9 -9.999 -99.9 -99.99 -9.99
2019/05/23 14:18 EDT  -99.99 -99.99   16  183   17 -99.9 -99.9 1020.2 -9.9 -9.999 -99.9 -99.99 -9.99
2019/05/23 14:24 EDT  -99.99 -99.99   17  184   18 -99.9 -99.9 1020.2 -9.9 -9.999 -99.9 -99.99 -9.99
2019/05/23 14:30 EDT  -99.99 -99.99   17  184   18 -99.9 -99.9 1020.2 -9.9 -9.999 -99.9 -99.99 -9.99
2019/05/23 14:36 EDT  -99.99 -99.99   17  184   17 -99.9 -99.9 1020.2 -9.9 -9.999 -99.9 -99.99 -9.99
2019/05/23 14:42 EDT  -99.99 -99.99   16  182   17 -99.9 -99.9 1020.2 -9.9 -9.999 -99.9 -99.99 -9.99
2019/05/23 14:48 EDT  -99.99 -99.99   15  178   17 -99.9 -99.9 1020.2 -9.9 -9.999 -99.9 -99.99 -9.99
2019/05/23 14:54 EDT  -99.99 -99.99   15  178   17 -99.9 -99.9 1020.1 -9.9 -9.999 -99.9 -99.99 -9.99
2019/05/23 15:00 EDT  -99.99 -99.99   14  177   16 -99.9 -99.9 1020.0 -9.9 -9.999 -99.9 -99.99 -9.99
2019/05/23 15:06 EDT  -99.99 -99.99   14  175   15 -99.9 -99.9 1020.0 -9.9 -9.999 -99.9 -99.99 -9.99
2019/05/23 15:12 EDT  -99.99 -99.99   14  175   16 -99.9 -99.9 1020.0 -9.9 -9.999 -99.9 -99.99 -9.99
2019/05/23 15:18 EDT  -99.99 -99.99   15  183   16 -99.9 -99.9 1019.8 -9.9 -9.999 -99.9 -99.99 -9.99
2019/05/23 15:24 EDT  -99.99 -99.99   14  179   16 -99.9 -99.9 1019.7 -9.9 -9.999 -99.9 -99.99 -9.99
2019/05/23 15:30 EDT  -99.99 -99.99   15  180   16 -99.9 -99.9 1019.6 -9.9 -9.999 -99.9 -99.99 -9.99
2019/05/23 15:36 EDT  -99.99 -99.99   14  184   15 -99.9 -99.9 1019.4 -9.9 -9.999 -99.9 -99.99 -9.99
2019/05/23 15:42 EDT  -99.99 -99.99   13  174   15 -99.9 -99.9 1019.2 -9.9 -9.999 -99.9 -99.99 -9.99
2019/05/23 15:48 EDT  -99.99 -99.99   15  178   16 -99.9 -99.9 1018.9 -9.9 -9.999 -99.9 -99.99 -9.99
2019/05/23 15:54 EDT  -99.99 -99.99   15  178   16 -99.9 -99.9 1018.7 -9.9 -9.999 -99.9 -99.99 -9.99
2019/05/23 16:00 EDT  -99.99 -99.99   14  180   15 -99.9 -99.9 1018.5 -9.9 -9.999 -99.9 -99.99 -9.99
2019/05/23 16:06 EDT  -99.99 -99.99   14  172   15 -99.9 -99.9 1018.4 -9.9 -9.999 -99.9 -99.99 -9.99
2019/05/23 16:12 EDT  -99.99 -99.99   14  169   15 -99.9 -99.9 1018.3 -9.9 -9.999 -99.9 -99.99 -9.99
2019/05/23 16:18 EDT  -99.99 -99.99   13  169   15 -99.9 -99.9 1018.2 -9.9 -9.999 -99.9 -99.99 -9.99
2019/05/23 16:24 EDT  -99.99 -99.99   11  187   13 -99.9 -99.9 1018.0 -9.9 -9.999 -99.9 -99.99 -9.99
2019/05/23 16:30 EDT  -99.99 -99.99   11  193   12 -99.9 -99.9 1018.1 -9.9 -9.999 -99.9 -99.99 -9.99
2019/05/23 16:36 EDT  -99.99 -99.99   12  198   14 -99.9 -99.9 1018.1 -9.9 -9.999 -99.9 -99.99 -9.99
2019/05/23 16:42 EDT  -99.99 -99.99   13  200   14 -99.9 -99.9 1018.0 -9.9 -9.999 -99.9 -99.99 -9.99
2019/05/23 16:48 EDT  -99.99 -99.99   13  199   15 -99.9 -99.9 1017.9 -9.9 -9.999 -99.9 -99.99 -9.99
2019/05/23 16:54 EDT  -99.99 -99.99   15  199   16 -99.9 -99.9 1017.7 -9.9 -9.999 -99.9 -99.99 -9.99
2019/05/23 17:00 EDT  -99.99 -99.99   16  208   19 -99.9 -99.9 1017.6 -9.9 -9.999 -99.9 -99.99 -9.99
2019/05/23 17:06 EDT  -99.99 -99.99   17  212   20 -99.9 -99.9 1017.9 -9.9 -9.999 -99.9 -99.99 -9.99
2019/05/23 17:12 EDT  -99.99 -99.99   17  209   19 -99.9 -99.9 1018.1 -9.9 -9.999 -99.9 -99.99 -9.99
2019/05/23 17:18 EDT  -99.99 -99.99   16  202   19 -99.9 -99.9 1018.0 -9.9 -9.999 -99.9 -99.99 -9.99
2019/05/23 17:24 EDT  -99.99 -99.99   16  203   18 -99.9 -99.9 1017.9 -9.9 -9.999 -99.9 -99.99 -9.99
2019/05/23 17:30 EDT  -99.99 -99.99   16  200   17 -99.9 -99.9 1017.7 -9.9 -9.999 -99.9 -99.99 -9.99
2019/05/23 17:36 EDT  -99.99 -99.99   16  199   17 -99.9 -99.9 1017.6 -9.9 -9.999 -99.9 -99.99 -9.99
2019/05/23 17:42 EDT  -99.99 -99.99   15  196   17 -99.9 -99.9 1017.6 -9.9 -9.999 -99.9 -99.99 -9.99
2019/05/23 17:48 EDT  -99.99 -99.99   14  193   15 -99.9 -99.9 1017.6 -9.9 -9.999 -99.9 -99.99 -9.99
2019/05/23 17:54 EDT  -99.99 -99.99   15  205   17 -99.9 -99.9 1017.8 -9.9 -9.999 -99.9 -99.99 -9.99
2019/05/23 18:00 EDT  -99.99 -99.99   13  208   16 -99.9 -99.9 1018.1 -9.9 -9.999 -99.9 -99.99 -9.99
2019/05/23 18:06 EDT  -99.99 -99.99   13  208   14 -99.9 -99.9 1017.9 -9.9 -9.999 -99.9 -99.99 -9.99
2019/05/23 18:12 EDT  -99.99 -99.99   12  213   13 -99.9 -99.9 1017.8 -9.9 -9.999 -99.9 -99.99 -9.99
2019/05/23 18:18 EDT  -99.99 -99.99   13  200   14 -99.9 -99.9 1017.9 -9.9 -9.999 -99.9 -99.99 -9.99
2019/05/23 18:24 EDT  -99.99 -99.99   12  191   13 -99.9 -99.9 1017.5 -9.9 -9.999 -99.9 -99.99 -9.99
2019/05/23 18:30 EDT  -99.99 -99.99   13  187   13 -99.9 -99.9 1017.3 -9.9 -9.999 -99.9 -99.99 -9.99
2019/05/23 18:36 EDT  -99.99 -99.99   12  175   13 -99.9 -99.9 1017.4 -9.9 -9.999 -99.9 -99.99 -9.99
2019/05/23 18:42 EDT  -99.99 -99.99   13  169   14 -99.9 -99.9 1017.2 -9.9 -9.999 -99.9 -99.99 -9.99
2019/05/23 18:48 EDT  -99.99 -99.99   16  186   17 -99.9 -99.9 1017.2 -9.9 -9.999 -99.9 -99.99 -9.99
2019/05/23 18:54 EDT  -99.99 -99.99   10  176   17 -99.9 -99.9 1017.3 -9.9 -9.999 -99.9 -99.99 -9.99
2019/05/23 19:00 EDT  -99.99 -99.99    9  201   15 -99.9 -99.9 1017.7 -9.9 -9.999 -99.9 -99.99 -9.99
2019/05/23 19:06 EDT  -99.99 -99.99   11  191   11 -99.9 -99.9 1017.7 -9.9 -9.999 -99.9 -99.99 -9.99
2019/05/23 19:12 EDT  -99.99 -99.99   11  185   12 -99.9 -99.9 1017.5 -9.9 -9.999 -99.9 -99.99 -9.99
2019/05/23 19:18 EDT  -99.99 -99.99   11  186   12 -99.9 -99.9 1017.4 -9.9 -9.999 -99.9 -99.99 -9.99
2019/05/23 19:24 EDT  -99.99 -99.99   12  177   12 -99.9 -99.9 1017.5 -9.9 -9.999 -99.9 -99.99 -9.99
2019/05/23 19:30 EDT  -99.99 -99.99   11  176   12 -99.9 -99.9 1017.5 -9.9 -9.999 -99.9 -99.99 -9.99
2019/05/23 19:36 EDT  -99.99 -99.99   12  173   12 -99.9 -99.9 1017.3 -9.9 -9.999 -99.9 -99.99 -9.99
2019/05/23 19:42 EDT  -99.99 -99.99   11  173   12 -99.9 -99.9 1017.3 -9.9 -9.999 -99.9 -99.99 -9.99
2019/05/23 19:48 EDT  -99.99 -99.99   10  174   11 -99.9 -99.9 1017.2 -9.9 -9.999 -99.9 -99.99 -9.99
2019/05/23 19:54 EDT  -99.99 -99.99   10  185   11 -99.9 -99.9 1017.3 -9.9 -9.999 -99.9 -99.99 -9.99
2019/05/23 20:00 EDT  -99.99 -99.99   11  191   12 -99.9 -99.9 1017.3 -9.9 -9.999 -99.9 -99.99 -9.99
2019/05/23 20:06 EDT  -99.99 -99.99   11  191   12 -99.9 -99.9 1017.3 -9.9 -9.999 -99.9 -99.99 -9.99
2019/05/23 20:12 EDT  -99.99 -99.99   13  191   14 -99.9 -99.9 1017.1 -9.9 -9.999 -99.9 -99.99 -9.99
2019/05/23 20:18 EDT  -99.99 -99.99   13  193   14 -99.9 -99.9 1017.1 -9.9 -9.999 -99.9 -99.99 -9.99
2019/05/23 20:24 EDT  -99.99 -99.99   13  195   14 -99.9 -99.9 1017.2 -9.9 -9.999 -99.9 -99.99 -9.99
2019/05/23 20:30 EDT  -99.99 -99.99   12  198   15 -99.9 -99.9 1017.2 -9.9 -9.999 -99.9 -99.99 -9.99
2019/05/23 20:36 EDT  -99.99 -99.99   12  195   13 -99.9 -99.9 1017.2 -9.9 -9.999 -99.9 -99.99 -9.99
2019/05/23 20:42 EDT  -99.99 -99.99   11  192   12 -99.9 -99.9 1017.2 -9.9 -9.999 -99.9 -99.99 -9.99
2019/05/23 20:48 EDT  -99.99 -99.99   10  186   11 -99.9 -99.9 1017.3 -9.9 -9.999 -99.9 -99.99 -9.99
2019/05/23 20:54 EDT  -99.99 -99.99    9  184   11 -99.9 -99.9 1017.3 -9.9 -9.999 -99.9 -99.99 -9.99
2019/05/23 21:00 EDT  -99.99 -99.99    9  184   10 -99.9 -99.9 1017.4 -9.9 -9.999 -99.9 -99.99 -9.99
2019/05/23 21:06 EDT  -99.99 -99.99    9  184   10 -99.9 -99.9 1017.5 -9.9 -9.999 -99.9 -99.99 -9.99
2019/05/23 21:12 EDT  -99.99 -99.99   11  190   11 -99.9 -99.9 1017.3 -9.9 -9.999 -99.9 -99.99 -9.99
2019/05/23 21:18 EDT  -99.99 -99.99   11  188   12 -99.9 -99.9 1017.2 -9.9 -9.999 -99.9 -99.99 -9.99
2019/05/23 21:24 EDT  -99.99 -99.99   12  189   12 -99.9 -99.9 1017.2 -9.9 -9.999 -99.9 -99.99 -9.99
2019/05/23 21:30 EDT  -99.99 -99.99   11  189   12 -99.9 -99.9 1017.2 -9.9 -9.999 -99.9 -99.99 -9.99
2019/05/23 21:36 EDT  -99.99 -99.99   11  184   12 -99.9 -99.9 1017.2 -9.9 -9.999 -99.9 -99.99 -9.99
2019/05/23 21:42 EDT  -99.99 -99.99   12  184   12 -99.9 -99.9 1017.2 -9.9 -9.999 -99.9 -99.99 -9.99
2019/05/23 21:48 EDT  -99.99 -99.99   11  189   12 -99.9 -99.9 1017.1 -9.9 -9.999 -99.9 -99.99 -9.99
2019/05/23 21:54 EDT  -99.99 -99.99   11  191   12 -99.9 -99.9 1017.1 -9.9 -9.999 -99.9 -99.99 -9.99
2019/05/23 22:00 EDT  -99.99 -99.99   11  194   12 -99.9 -99.9 1017.0 -9.9 -9.999 -99.9 -99.99 -9.99
2019/05/23 22:06 EDT  -99.99 -99.99   11  192   12 -99.9 -99.9 1017.0 -9.9 -9.999 -99.9 -99.99 -9.99
2019/05/23 22:12 EDT  -99.99 -99.99   10  198   11 -99.9 -99.9 1017.1 -9.9 -9.999 -99.9 -99.99 -9.99
2019/05/23 22:18 EDT  -99.99 -99.99   10  201   11 -99.9 -99.9 1017.1 -9.9 -9.999 -99.9 -99.99 -9.99
2019/05/23 22:24 EDT  -99.99 -99.99   10  204   11 -99.9 -99.9 1017.1 -9.9 -9.999 -99.9 -99.99 -9.99
2019/05/23 22:30 EDT  -99.99 -99.99   11  205   11 -99.9 -99.9 1017.1 -9.9 -9.999 -99.9 -99.99 -9.99
2019/05/23 22:36 EDT  -99.99 -99.99   11  207   12 -99.9 -99.9 1017.1 -9.9 -9.999 -99.9 -99.99 -9.99
2019/05/23 22:42 EDT  -99.99 -99.99   11  208   12 -99.9 -99.9 1017.1 -9.9 -9.999 -99.9 -99.99 -9.99
2019/05/23 22:48 EDT  -99.99 -99.99   12  205   12 -99.9 -99.9 1017.1 -9.9 -9.999 -99.9 -99.99 -9.99
2019/05/23 22:54 EDT  -99.99 -99.99   12  206   13 -99.9 -99.9 1017.0 -9.9 -9.999 -99.9 -99.99 -9.99
2019/05/23 23:00 EDT  -99.99 -99.99   13  207   14 -99.9 -99.9 1016.9 -9.9 -9.999 -99.9 -99.99 -9.99
2019/05/23 23:06 EDT  -99.99 -99.99   14  211   15 -99.9 -99.9 1016.8 -9.9 -9.999 -99.9 -99.99 -9.99
2019/05/23 23:12 EDT  -99.99 -99.99   15  210   16 -99.9 -99.9 1016.6 -9.9 -9.999 -99.9 -99.99 -9.99
2019/05/23 23:18 EDT  -99.99 -99.99   15  213   16 -99.9 -99.9 1016.5 -9.9 -9.999 -99.9 -99.99 -9.99
2019/05/23 23:24 EDT  -99.99 -99.99   15  215   16 -99.9 -99.9 1016.5 -9.9 -9.999 -99.9 -99.99 -9.99
2019/05/23 23:30 EDT  -99.99 -99.99   15  216   17 -99.9 -99.9 1016.5 -9.9 -9.999 -99.9 -99.99 -9.99
2019/05/23 23:36 EDT  -99.99 -99.99   14  214   16 -99.9 -99.9 1016.5 -9.9 -9.999 -99.9 -99.99 -9.99
2019/05/23 23:42 EDT  -99.99 -99.99   15  212   16 -99.9 -99.9 1016.4 -9.9 -9.999 -99.9 -99.99 -9.99
2019/05/23 23:48 EDT  -99.99 -99.99   15  213   16 -99.9 -99.9 1016.3 -9.9 -9.999 -99.9 -99.99 -9.99
2019/05/23 23:54 EDT  -99.99 -99.99   15  212   16 -99.9 -99.9 1016.4 -9.9 -9.999 -99.9 -99.99 -9.99
2019/05/24 00:00 EDT  -99.99 -99.99   15  214   17 -99.9 -99.9 1016.4 -9.9 -9.999 -99.9 -99.99 -9.99
2019/05/24 00:06 EDT  -99.99 -99.99   16  214   18 -99.9 -99.9 1016.4 -9.9 -9.999 -99.9 -99.99 -9.99
2019/05/24 00:12 EDT  -99.99 -99.99   15  213   17 -99.9 -99.9 1016.3 -9.9 -9.999 -99.9 -99.99 -9.99
2019/05/24 00:18 EDT  -99.99 -99.99   15  210   16 -99.9 -99.9 1016.1 -9.9 -9.999 -99.9 -99.99 -9.99
2019/05/24 00:24 EDT  -99.99 -99.99   15  209   16 -99.9 -99.9 1016.1 -9.9 -9.999 -99.9 -99.99 -9.99
2019/05/24 00:30 EDT  -99.99 -99.99   16  208   17 -99.9 -99.9 1015.9 -9.9 -9.999 -99.9 -99.99 -9.99
2019/05/24 00:36 EDT  -99.99 -99.99   16  208   17 -99.9 -99.9 1015.9 -9.9 -9.999 -99.9 -99.99 -9.99
2019/05/24 00:42 EDT  -99.99 -99.99   16  211   17 -99.9 -99.9 1015.9 -9.9 -9.999 -99.9 -99.99 -9.99
2019/05/24 00:48 EDT  -99.99 -99.99   16  212   18 -99.9 -99.9 1015.8 -9.9 -9.999 -99.9 -99.99 -9.99
2019/05/24 00:54 EDT  -99.99 -99.99   17  212   18 -99.9 -99.9 1015.8 -9.9 -9.999 -99.9 -99.99 -9.99
2019/05/24 01:00 EDT  -99.99 -99.99   16  213   18 -99.9 -99.9 1015.7 -9.9 -9.999 -99.9 -99.99 -9.99
2019/05/24 01:06 EDT  -99.99 -99.99   17  215   18 -99.9 -99.9 1015.6 -9.9 -9.999 -99.9 -99.99 -9.99
2019/05/24 01:12 EDT  -99.99 -99.99   17  216   18 -99.9 -99.9 1015.6 -9.9 -9.999 -99.9 -99.99 -9.99
2019/05/24 01:18 EDT  -99.99 -99.99   17  215   18 -99.9 -99.9 1015.6 -9.9 -9.999 -99.9 -99.99 -9.99
2019/05/24 01:24 EDT  -99.99 -99.99   16  213   18 -99.9 -99.9 1015.6 -9.9 -9.999 -99.9 -99.99 -9.99
2019/05/24 01:30 EDT  -99.99 -99.99   16  212   17 -99.9 -99.9 1015.6 -9.9 -9.999 -99.9 -99.99 -9.99
2019/05/24 01:36 EDT  -99.99 -99.99   16  211   17 -99.9 -99.9 1015.5 -9.9 -9.999 -99.9 -99.99 -9.99
2019/05/24 01:42 EDT  -99.99 -99.99   15  209   17 -99.9 -99.9 1015.5 -9.9 -9.999 -99.9 -99.99 -9.99
2019/05/24 01:48 EDT  -99.99 -99.99   15  210   16 -99.9 -99.9 1015.5 -9.9 -9.999 -99.9 -99.99 -9.99
2019/05/24 01:54 EDT  -99.99 -99.99   15  212   16 -99.9 -99.9 1015.4 -9.9 -9.999 -99.9 -99.99 -9.99
2019/05/24 02:00 EDT  -99.99 -99.99   15  215   17 -99.9 -99.9 1015.3 -9.9 -9.999 -99.9 -99.99 -9.99
2019/05/24 02:06 EDT  -99.99 -99.99   15  213   16 -99.9 -99.9 1015.3 -9.9 -9.999 -99.9 -99.99 -9.99
2019/05/24 02:12 EDT  -99.99 -99.99   15  214   16 -99.9 -99.9 1015.2 -9.9 -9.999 -99.9 -99.99 -9.99
2019/05/24 02:18 EDT  -99.99 -99.99   15  214   16 -99.9 -99.9 1015.2 -9.9 -9.999 -99.9 -99.99 -9.99
2019/05/24 02:24 EDT  -99.99 -99.99   15  216   17 -99.9 -99.9 1015.1 -9.9 -9.999 -99.9 -99.99 -9.99
2019/05/24 02:30 EDT  -99.99 -99.99   16  218   16 -99.9 -99.9 1015.1 -9.9 -9.999 -99.9 -99.99 -9.99
2019/05/24 02:36 EDT  -99.99 -99.99   17  218   18 -99.9 -99.9 1014.9 -9.9 -9.999 -99.9 -99.99 -9.99
2019/05/24 02:42 EDT  -99.99 -99.99   16  217   17 -99.9 -99.9 1014.9 -9.9 -9.999 -99.9 -99.99 -9.99
2019/05/24 02:48 EDT  -99.99 -99.99   16  217   17 -99.9 -99.9 1014.8 -9.9 -9.999 -99.9 -99.99 -9.99
2019/05/24 02:54 EDT  -99.99 -99.99   15  217   17 -99.9 -99.9 1014.7 -9.9 -9.999 -99.9 -99.99 -9.99
2019/05/24 03:00 EDT  -99.99 -99.99   14  219   15 -99.9 -99.9 1014.8 -9.9 -9.999 -99.9 -99.99 -9.99
2019/05/24 03:06 EDT  -99.99 -99.99   13  218   15 -99.9 -99.9 1014.7 -9.9 -9.999 -99.9 -99.99 -9.99
2019/05/24 03:12 EDT  -99.99 -99.99   15  218   16 -99.9 -99.9 1014.8 -9.9 -9.999 -99.9 -99.99 -9.99
2019/05/24 03:18 EDT  -99.99 -99.99   13  220   16 -99.9 -99.9 1014.6 -9.9 -9.999 -99.9 -99.99 -9.99
2019/05/24 03:24 EDT  -99.99 -99.99   14  221   17 -99.9 -99.9 1014.6 -9.9 -9.999 -99.9 -99.99 -9.99
2019/05/24 03:30 EDT  -99.99 -99.99   13  224   16 -99.9 -99.9 1014.6 -9.9 -9.999 -99.9 -99.99 -9.99
2019/05/24 03:36 EDT  -99.99 -99.99   14  228   17 -99.9 -99.9 1014.7 -9.9 -9.999 -99.9 -99.99 -9.99
2019/05/24 03:42 EDT  -99.99 -99.99   13  229   17 -99.9 -99.9 1014.6 -9.9 -9.999 -99.9 -99.99 -9.99
2019/05/24 03:48 EDT  -99.99 -99.99   14  226   16 -99.9 -99.9 1014.5 -9.9 -9.999 -99.9 -99.99 -9.99
2019/05/24 03:54 EDT  -99.99 -99.99   13  224   14 -99.9 -99.9 1014.5 -9.9 -9.999 -99.9 -99.99 -9.99
2019/05/24 04:00 EDT  -99.99 -99.99   12  221   14 -99.9 -99.9 1014.6 -9.9 -9.999 -99.9 -99.99 -9.99
2019/05/24 04:06 EDT  -99.99 -99.99   13  222   14 -99.9 -99.9 1014.4 -9.9 -9.999 -99.9 -99.99 -9.99
2019/05/24 04:12 EDT  -99.99 -99.99   13  227   16 -99.9 -99.9 1014.5 -9.9 -9.999 -99.9 -99.99 -9.99
2019/05/24 04:18 EDT  -99.99 -99.99   13  226   16 -99.9 -99.9 1014.4 -9.9 -9.999 -99.9 -99.99 -9.99
2019/05/24 04:24 EDT  -99.99 -99.99   15  229   17 -99.9 -99.9 1014.4 -9.9 -9.999 -99.9 -99.99 -9.99
2019/05/24 04:30 EDT  -99.99 -99.99   15  232   16 -99.9 -99.9 1014.4 -9.9 -9.999 -99.9 -99.99 -9.99
2019/05/24 04:36 EDT  -99.99 -99.99   16  232   18 -99.9 -99.9 1014.4 -9.9 -9.999 -99.9 -99.99 -9.99
2019/05/24 04:42 EDT  -99.99 -99.99   14  226   16 -99.9 -99.9 1014.4 -9.9 -9.999 -99.9 -99.99 -9.99
2019/05/24 04:48 EDT  -99.99 -99.99   13  227   14 -99.9 -99.9 1014.4 -9.9 -9.999 -99.9 -99.99 -9.99
2019/05/24 04:54 EDT  -99.99 -99.99   11  225   13 -99.9 -99.9 1014.5 -9.9 -9.999 -99.9 -99.99 -9.99
2019/05/24 05:00 EDT  -99.99 -99.99   12  226   13 -99.9 -99.9 1014.5 -9.9 -9.999 -99.9 -99.99 -9.99
2019/05/24 05:06 EDT  -99.99 -99.99   12  231   13 -99.9 -99.9 1014.5 -9.9 -9.999 -99.9 -99.99 -9.99
2019/05/24 05:12 EDT  -99.99 -99.99   11  233   12 -99.9 -99.9 1014.6 -9.9 -9.999 -99.9 -99.99 -9.99
2019/05/24 05:18 EDT  -99.99 -99.99   12  230   13 -99.9 -99.9 1014.6 -9.9 -9.999 -99.9 -99.99 -9.99
2019/05/24 05:24 EDT  -99.99 -99.99   12  232   12 -99.9 -99.9 1014.6 -9.9 -9.999 -99.9 -99.99 -9.99
2019/05/24 05:30 EDT  -99.99 -99.99   11  232   12 -99.9 -99.9 1014.7 -9.9 -9.999 -99.9 -99.99 -9.99
2019/05/24 05:36 EDT  -99.99 -99.99   11  227   12 -99.9 -99.9 1014.7 -9.9 -9.999 -99.9 -99.99 -9.99
2019/05/24 05:42 EDT  -99.99 -99.99   11  228   12 -99.9 -99.9 1014.6 -9.9 -9.999 -99.9 -99.99 -9.99
2019/05/24 05:48 EDT  -99.99 -99.99   11  225   11 -99.9 -99.9 1014.6 -9.9 -9.999 -99.9 -99.99 -9.99
2019/05/24 05:54 EDT  -99.99 -99.99   10  225   11 -99.9 -99.9 1014.7 -9.9 -9.999 -99.9 -99.99 -9.99
2019/05/24 06:00 EDT  -99.99 -99.99   10  230   11 -99.9 -99.9 1014.8 -9.9 -9.999 -99.9 -99.99 -9.99
2019/05/24 06:06 EDT  -99.99 -99.99   11  229   12 -99.9 -99.9 1014.7 -9.9 -9.999 -99.9 -99.99 -9.99
2019/05/24 06:12 EDT  -99.99 -99.99   12  234   13 -99.9 -99.9 1014.8 -9.9 -9.999 -99.9 -99.99 -9.99
2019/05/24 06:18 EDT  -99.99 -99.99   12  236   13 -99.9 -99.9 1014.8 -9.9 -9.999 -99.9 -99.99 -9.99
2019/05/24 06:24 EDT  -99.99 -99.99   12  238   13 -99.9 -99.9 1014.9 -9.9 -9.999 -99.9 -99.99 -9.99
2019/05/24 06:30 EDT  -99.99 -99.99   13  236   13 -99.9 -99.9 1014.9 -9.9 -9.999 -99.9 -99.99 -9.99
2019/05/24 06:36 EDT  -99.99 -99.99   12  240   13 -99.9 -99.9 1014.8 -9.9 -9.999 -99.9 -99.99 -9.99
2019/05/24 06:42 EDT  -99.99 -99.99   12  245   13 -99.9 -99.9 1014.9 -9.9 -9.999 -99.9 -99.99 -9.99
2019/05/24 06:48 EDT  -99.99 -99.99   12  244   13 -99.9 -99.9 1015.0 -9.9 -9.999 -99.9 -99.99 -9.99
2019/05/24 06:54 EDT  -99.99 -99.99   11  244   12 -99.9 -99.9 1015.1 -9.9 -9.999 -99.9 -99.99 -9.99
2019/05/24 07:00 EDT  -99.99 -99.99   12  247   13 -99.9 -99.9 1015.0 -9.9 -9.999 -99.9 -99.99 -9.99
2019/05/24 07:06 EDT  -99.99 -99.99   11  241   13 -99.9 -99.9 1015.1 -9.9 -9.999 -99.9 -99.99 -9.99
2019/05/24 07:12 EDT  -99.99 -99.99   11  247   12 -99.9 -99.9 1015.2 -9.9 -9.999 -99.9 -99.99 -9.99
2019/05/24 07:18 EDT  -99.99 -99.99   11  247   12 -99.9 -99.9 1015.3 -9.9 -9.999 -99.9 -99.99 -9.99
2019/05/24 07:24 EDT  -99.99 -99.99   11  246   12 -99.9 -99.9 1015.4 -9.9 -9.999 -99.9 -99.99 -9.99
2019/05/24 07:30 EDT  -99.99 -99.99   11  250   14 -99.9 -99.9 1015.4 -9.9 -9.999 -99.9 -99.99 -9.99
2019/05/24 07:36 EDT  -99.99 -99.99   10  252   12 -99.9 -99.9 1015.4 -9.9 -9.999 -99.9 -99.99 -9.99
2019/05/24 07:42 EDT  -99.99 -99.99   10  255   11 -99.9 -99.9 1015.4 -9.9 -9.999 -99.9 -99.99 -9.99
2019/05/24 07:48 EDT  -99.99 -99.99   11  256   12 -99.9 -99.9 1015.4 -9.9 -9.999 -99.9 -99.99 -9.99
2019/05/24 07:54 EDT  -99.99 -99.99   11  260   12 -99.9 -99.9 1015.4 -9.9 -9.999 -99.9 -99.99 -9.99
2019/05/24 08:00 EDT  -99.99 -99.99    9  276   11 -99.9 -99.9 1015.6 -9.9 -9.999 -99.9 -99.99 -9.99
2019/05/24 08:06 EDT  -99.99 -99.99    9  275   10 -99.9 -99.9 1015.7 -9.9 -9.999 -99.9 -99.99 -9.99
2019/05/24 08:12 EDT  -99.99 -99.99   10  280   11 -99.9 -99.9 1015.8 -9.9 -9.999 -99.9 -99.99 -9.99
2019/05/24 08:18 EDT  -99.99 -99.99   10  293   11 -99.9 -99.9 1015.9 -9.9 -9.999 -99.9 -99.99 -9.99
2019/05/24 08:24 EDT  -99.99 -99.99   12  316   13 -99.9 -99.9 1016.0 -9.9 -9.999 -99.9 -99.99 -9.99
2019/05/24 08:30 EDT  -99.99 -99.99   12  332   13 -99.9 -99.9 1016.2 -9.9 -9.999 -99.9 -99.99 -9.99
2019/05/24 08:36 EDT  -99.99 -99.99   12  337   13 -99.9 -99.9 1016.2 -9.9 -9.999 -99.9 -99.99 -9.99
2019/05/24 08:42 EDT  -99.99 -99.99   12  338   14 -99.9 -99.9 1016.3 -9.9 -9.999 -99.9 -99.99 -9.99
2019/05/24 08:48 EDT  -99.99 -99.99   13  319   14 -99.9 -99.9 1016.3 -9.9 -9.999 -99.9 -99.99 -9.99
2019/05/24 08:54 EDT  -99.99 -99.99   13  319   15 -99.9 -99.9 1016.2 -9.9 -9.999 -99.9 -99.99 -9.99
2019/05/24 09:00 EDT  -99.99 -99.99   14  327   15 -99.9 -99.9 1016.3 -9.9 -9.999 -99.9 -99.99 -9.99
2019/05/24 09:06 EDT  -99.99 -99.99   15  323   17 -99.9 -99.9 1016.5 -9.9 -9.999 -99.9 -99.99 -9.99
2019/05/24 09:12 EDT  -99.99 -99.99   13  323   15 -99.9 -99.9 1016.6 -9.9 -9.999 -99.9 -99.99 -9.99
2019/05/24 09:18 EDT  -99.99 -99.99   14  325   15 -99.9 -99.9 1016.6 -9.9 -9.999 -99.9 -99.99 -9.99
2019/05/24 09:24 EDT  -99.99 -99.99   15  330   17 -99.9 -99.9 1016.8 -9.9 -9.999 -99.9 -99.99 -9.99
2019/05/24 09:30 EDT  -99.99 -99.99   16  336   17 -99.9 -99.9 1016.8 -9.9 -9.999 -99.9 -99.99 -9.99
2019/05/24 09:36 EDT  -99.99 -99.99   16  339   18 -99.9 -99.9 1016.8 -9.9 -9.999 -99.9 -99.99 -9.99
2019/05/24 09:42 EDT  -99.99 -99.99   16  341   18 -99.9 -99.9 1016.9 -9.9 -9.999 -99.9 -99.99 -9.99
2019/05/24 09:48 EDT  -99.99 -99.99   15  342   17 -99.9 -99.9 1016.8 -9.9 -9.999 -99.9 -99.99 -9.99
2019/05/24 09:54 EDT  -99.99 -99.99   14  344   16 -99.9 -99.9 1016.7 -9.9 -9.999 -99.9 -99.99 -9.99
2019/05/24 10:00 EDT  -99.99 -99.99   16  345   18 -99.9 -99.9 1016.7 -9.9 -9.999 -99.9 -99.99 -9.99
2019/05/24 10:06 EDT  -99.99 -99.99   16  347   18 -99.9 -99.9 1016.8 -9.9 -9.999 -99.9 -99.99 -9.99
2019/05/24 10:12 EDT  -99.99 -99.99   15  351   17 -99.9 -99.9 1016.6 -9.9 -9.999 -99.9 -99.99 -9.99
2019/05/24 10:18 EDT  -99.99 -99.99   15  354   17 -99.9 -99.9 1016.6 -9.9 -9.999 -99.9 -99.99 -9.99
2019/05/24 10:24 EDT  -99.99 -99.99   15  354   17 -99.9 -99.9 1016.7 -9.9 -9.999 -99.9 -99.99 -9.99
2019/05/24 10:30 EDT  -99.99 -99.99   15  355   17 -99.9 -99.9 1016.8 -9.9 -9.999 -99.9 -99.99 -9.99
2019/05/24 10:36 EDT  -99.99 -99.99   14  355   16 -99.9 -99.9 1017.0 -9.9 -9.999 -99.9 -99.99 -9.99
2019/05/24 10:42 EDT  -99.99 -99.99   13  352   15 -99.9 -99.9 1016.9 -9.9 -9.999 -99.9 -99.99 -9.99
2019/05/24 10:48 EDT  -99.99 -99.99   12  354   14 -99.9 -99.9 1017.0 -9.9 -9.999 -99.9 -99.99 -9.99
2019/05/24 10:54 EDT  -99.99 -99.99   13  353   14 -99.9 -99.9 1017.0 -9.9 -9.999 -99.9 -99.99 -9.99
2019/05/24 11:00 EDT  -99.99 -99.99   11  352   14 -99.9 -99.9 1017.1 -9.9 -9.999 -99.9 -99.99 -9.99
2019/05/24 11:06 EDT  -99.99 -99.99   11  352   13 -99.9 -99.9 1017.2 -9.9 -9.999 -99.9 -99.99 -9.99
2019/05/24 11:12 EDT  -99.99 -99.99   10  352   12 -99.9 -99.9 1017.2 -9.9 -9.999 -99.9 -99.99 -9.99
2019/05/24 11:18 EDT  -99.99 -99.99   11  345   12 -99.9 -99.9 1017.2 -9.9 -9.999 -99.9 -99.99 -9.99
2019/05/24 11:24 EDT  -99.99 -99.99   11  347   12 -99.9 -99.9 1017.0 -9.9 -9.999 -99.9 -99.99 -9.99
2019/05/24 11:30 EDT  -99.99 -99.99   11  347   13 -99.9 -99.9 1016.9 -9.9 -9.999 -99.9 -99.99 -9.99
2019/05/24 11:36 EDT  -99.99 -99.99   13  349   14 -99.9 -99.9 1016.9 -9.9 -9.999 -99.9 -99.99 -9.99
2019/05/24 11:42 EDT  -99.99 -99.99   10  354   13 -99.9 -99.9 1017.0 -9.9 -9.999 -99.9 -99.99 -9.99
2019/05/24 11:48 EDT  -99.99 -99.99   10    5   12 -99.9 -99.9 1017.0 -9.9 -9.999 -99.9 -99.99 -9.99
2019/05/24 11:54 EDT  -99.99 -99.99   12    2   14 -99.9 -99.9 1017.0 -9.9 -9.999 -99.9 -99.99 -9.99
2019/05/24 12:00 EDT  -99.99 -99.99   11    4   13 -99.9 -99.9 1017.0 -9.9 -9.999 -99.9 -99.99 -9.99
2019/05/24 12:06 EDT  -99.99 -99.99    9   23   11 -99.9 -99.9 1017.1 -9.9 -9.999 -99.9 -99.99 -9.99
2019/05/24 12:12 EDT  -99.99 -99.99    9   31   10 -99.9 -99.9 1017.2 -9.9 -9.999 -99.9 -99.99 -9.99
2019/05/24 12:18 EDT  -99.99 -99.99   11   17   13 -99.9 -99.9 1017.2 -9.9 -9.999 -99.9 -99.99 -9.99
2019/05/24 12:24 EDT  -99.99 -99.99   11    5   13 -99.9 -99.9 1017.2 -9.9 -9.999 -99.9 -99.99 -9.99
2019/05/24 12:30 EDT  -99.99 -99.99   11  353   12 -99.9 -99.9 1017.1 -9.9 -9.999 -99.9 -99.99 -9.99
2019/05/24 12:36 EDT  -99.99 -99.99   11  353   13 -99.9 -99.9 1017.1 -9.9 -9.999 -99.9 -99.99 -9.99
2019/05/24 12:42 EDT  -99.99 -99.99   11  353   12 -99.9 -99.9 1017.1 -9.9 -9.999 -99.9 -99.99 -9.99
2019/05/24 12:48 EDT  -99.99 -99.99   12  353   14 -99.9 -99.9 1017.2 -9.9 -9.999 -99.9 -99.99 -9.99
2019/05/24 12:54 EDT  -99.99 -99.99   11  352   14 -99.9 -99.9 1017.2 -9.9 -9.999 -99.9 -99.99 -9.99
2019/05/24 13:00 EDT  -99.99 -99.99   11    1   12 -99.9 -99.9 1017.1 -9.9 -9.999 -99.9 -99.99 -9.99
2019/05/24 13:06 EDT  -99.99 -99.99   12    3   13 -99.9 -99.9 1017.1 -9.9 -9.999 -99.9 -99.99 -9.99
2019/05/24 13:12 EDT  -99.99 -99.99   12    7   15 -99.9 -99.9 1017.2 -9.9 -9.999 -99.9 -99.99 -9.99
2019/05/24 13:18 EDT  -99.99 -99.99   13   11   15 -99.9 -99.9 1017.2 -9.9 -9.999 -99.9 -99.99 -9.99
2019/05/24 13:24 EDT  -99.99 -99.99   13   17   14 -99.9 -99.9 1017.2 -9.9 -9.999 -99.9 -99.99 -9.99
2019/05/24 13:30 EDT  -99.99 -99.99   12   13   14 -99.9 -99.9 1017.2 -9.9 -9.999 -99.9 -99.99 -9.99
2019/05/24 13:36 EDT  -99.99 -99.99   14   12   16 -99.9 -99.9 1017.2 -9.9 -9.999 -99.9 -99.99 -9.99
2019/05/24 13:42 EDT  -99.99 -99.99   14    7   15 -99.9 -99.9 1017.2 -9.9 -9.999 -99.9 -99.99 -9.99
2019/05/24 13:48 EDT  -99.99 -99.99   14    2   16 -99.9 -99.9 1017.2 -9.9 -9.999 -99.9 -99.99 -9.99
2019/05/24 13:54 EDT  -99.99 -99.99   13    4   15 -99.9 -99.9 1017.0 -9.9 -9.999 -99.9 -99.99 -9.99
2019/05/24 14:00 EDT  -99.99 -99.99   13    6   14 -99.9 -99.9 1016.9 -9.9 -9.999 -99.9 -99.99 -9.99
2019/05/24 14:06 EDT  -99.99 -99.99   14    4   15 -99.9 -99.9 1016.9 -9.9 -9.999 -99.9 -99.99 -9.99
2019/05/24 14:12 EDT  -99.99 -99.99   16    3   18 -99.9 -99.9 1016.9 -9.9 -9.999 -99.9 -99.99 -9.99
2019/05/24 14:18 EDT  -99.99 -99.99   16  353   17 -99.9 -99.9 1016.8 -9.9 -9.999 -99.9 -99.99 -9.99
2019/05/24 14:24 EDT  -99.99 -99.99   16  352   17 -99.9 -99.9 1016.8 -9.9 -9.999 -99.9 -99.99 -9.99
2019/05/24 14:30 EDT  -99.99 -99.99 -999 -999 -999 -99.9 -99.9 1016.8 -9.9 -9.999 -99.9 -99.99 -9.99
2019/05/24 14:36 EDT  -99.99 -99.99   15    2   16 -99.9 -99.9 1016.8 -9.9 -9.999 -99.9 -99.99 -9.99
2019/05/24 14:42 EDT  -99.99 -99.99   16    1   18 -99.9 -99.9 1016.8 -9.9 -9.999 -99.9 -99.99 -9.99
2019/05/24 14:48 EDT  -99.99 -99.99   16  358   17 -99.9 -99.9 1016.8 -9.9 -9.999 -99.9 -99.99 -9.99
2019/05/24 14:54 EDT  -99.99 -99.99   16  359   18 -99.9 -99.9 1016.8 -9.9 -9.999 -99.9 -99.99 -9.99
2019/05/24 15:00 EDT  -99.99 -99.99   16  352   18 -99.9 -99.9 1016.8 -9.9 -9.999 -99.9 -99.99 -9.99
2019/05/24 15:06 EDT  -99.99 -99.99   15    1   17 -99.9 -99.9 1016.7 -9.9 -9.999 -99.9 -99.99 -9.99
2019/05/24 15:12 EDT  -99.99 -99.99   15  353   17 -99.9 -99.9 1016.6 -9.9 -9.999 -99.9 -99.99 -9.99
2019/05/24 15:18 EDT  -99.99 -99.99   12    8   15 -99.9 -99.9 1016.6 -9.9 -9.999 -99.9 -99.99 -9.99
2019/05/24 15:24 EDT  -99.99 -99.99   15   12   17 -99.9 -99.9 1016.5 -9.9 -9.999 -99.9 -99.99 -9.99
2019/05/24 15:30 EDT  -99.99 -99.99   16   11   18 -99.9 -99.9 1016.4 -9.9 -9.999 -99.9 -99.99 -9.99
2019/05/24 15:36 EDT  -99.99 -99.99   16   13   18 -99.9 -99.9 1016.5 -9.9 -9.999 -99.9 -99.99 -9.99
2019/05/24 15:42 EDT  -99.99 -99.99   18   12   19 -99.9 -99.9 1016.4 -9.9 -9.999 -99.9 -99.99 -9.99
2019/05/24 15:48 EDT  -99.99 -99.99   19   11   21 -99.9 -99.9 1016.4 -9.9 -9.999 -99.9 -99.99 -9.99
2019/05/24 15:54 EDT  -99.99 -99.99   20    9   21 -99.9 -99.9 1016.4 -9.9 -9.999 -99.9 -99.99 -9.99
2019/05/24 16:00 EDT  -99.99 -99.99   20    6   21 -99.9 -99.9 1016.4 -9.9 -9.999 -99.9 -99.99 -9.99
2019/05/24 16:06 EDT  -99.99 -99.99   18    2   21 -99.9 -99.9 1016.5 -9.9 -9.999 -99.9 -99.99 -9.99
2019/05/24 16:12 EDT  -99.99 -99.99   17    1   20 -99.9 -99.9 1016.5 -9.9 -9.999 -99.9 -99.99 -9.99
2019/05/24 16:18 EDT  -99.99 -99.99   16  353   18 -99.9 -99.9 1016.7 -9.9 -9.999 -99.9 -99.99 -9.99
2019/05/24 16:24 EDT  -99.99 -99.99   16  357   19 -99.9 -99.9 1016.7 -9.9 -9.999 -99.9 -99.99 -9.99
2019/05/24 16:30 EDT  -99.99 -99.99   15  360   19 -99.9 -99.9 1016.7 -9.9 -9.999 -99.9 -99.99 -9.99
2019/05/24 16:36 EDT  -99.99 -99.99   15    1   17 -99.9 -99.9 1016.7 -9.9 -9.999 -99.9 -99.99 -9.99
2019/05/24 16:42 EDT  -99.99 -99.99   14    2   17 -99.9 -99.9 1016.7 -9.9 -9.999 -99.9 -99.99 -9.99
2019/05/24 16:48 EDT  -99.99 -99.99   12  359   15 -99.9 -99.9 1016.8 -9.9 -9.999 -99.9 -99.99 -9.99
2019/05/24 16:54 EDT  -99.99 -99.99   12  359   14 -99.9 -99.9 1016.9 -9.9 -9.999 -99.9 -99.99 -9.99
2019/05/24 17:00 EDT  -99.99 -99.99   10    3   13 -99.9 -99.9 1016.9 -9.9 -9.999 -99.9 -99.99 -9.99
2019/05/24 17:06 EDT  -99.99 -99.99   13  359   15 -99.9 -99.9 1016.8 -9.9 -9.999 -99.9 -99.99 -9.99
2019/05/24 17:12 EDT  -99.99 -99.99   11  355   13 -99.9 -99.9 1016.9 -9.9 -9.999 -99.9 -99.99 -9.99
2019/05/24 17:18 EDT  -99.99 -99.99   10  354   12 -99.9 -99.9 1017.0 -9.9 -9.999 -99.9 -99.99 -9.99
2019/05/24 17:24 EDT  -99.99 -99.99   11  353   13 -99.9 -99.9 1017.0 -9.9 -9.999 -99.9 -99.99 -9.99
2019/05/24 17:30 EDT  -99.99 -99.99   12  352   13 -99.9 -99.9 1017.1 -9.9 -9.999 -99.9 -99.99 -9.99
2019/05/24 17:36 EDT  -99.99 -99.99   12  344   15 -99.9 -99.9 1017.0 -9.9 -9.999 -99.9 -99.99 -9.99
2019/05/24 17:42 EDT  -99.99 -99.99   11  345   12 -99.9 -99.9 1017.1 -9.9 -9.999 -99.9 -99.99 -9.99
2019/05/24 17:48 EDT  -99.99 -99.99   11  346   13 -99.9 -99.9 1017.2 -9.9 -9.999 -99.9 -99.99 -9.99
2019/05/24 17:54 EDT  -99.99 -99.99   13  347   14 -99.9 -99.9 1017.2 -9.9 -9.999 -99.9 -99.99 -9.99
2019/05/24 18:00 EDT  -99.99 -99.99   13  350   14 -99.9 -99.9 1017.2 -9.9 -9.999 -99.9 -99.99 -9.99
2019/05/24 18:06 EDT  -99.99 -99.99   13  347   15 -99.9 -99.9 1017.2 -9.9 -9.999 -99.9 -99.99 -9.99
2019/05/24 18:12 EDT  -99.99 -99.99   14  349   16 -99.9 -99.9 1017.3 -9.9 -9.999 -99.9 -99.99 -9.99
2019/05/24 18:18 EDT  -99.99 -99.99   15  349   16 -99.9 -99.9 1017.3 -9.9 -9.999 -99.9 -99.99 -9.99
2019/05/24 18:24 EDT  -99.99 -99.99   14  344   16 -99.9 -99.9 1017.4 -9.9 -9.999 -99.9 -99.99 -9.99
2019/05/24 18:30 EDT  -99.99 -99.99   15  345   16 -99.9 -99.9 1017.4 -9.9 -9.999 -99.9 -99.99 -9.99
2019/05/24 18:36 EDT  -99.99 -99.99   14  345   16 -99.9 -99.9 1017.4 -9.9 -9.999 -99.9 -99.99 -9.99
2019/05/24 18:42 EDT  -99.99 -99.99   13  346   15 -99.9 -99.9 1017.5 -9.9 -9.999 -99.9 -99.99 -9.99
2019/05/24 18:48 EDT  -99.99 -99.99   14  351   16 -99.9 -99.9 1017.6 -9.9 -9.999 -99.9 -99.99 -9.99
2019/05/24 18:54 EDT  -99.99 -99.99   14  353   15 -99.9 -99.9 1017.7 -9.9 -9.999 -99.9 -99.99 -9.99
2019/05/24 19:00 EDT  -99.99 -99.99   12  354   14 -99.9 -99.9 1017.7 -9.9 -9.999 -99.9 -99.99 -9.99
2019/05/24 19:06 EDT  -99.99 -99.99   11  355   14 -99.9 -99.9 1017.7 -9.9 -9.999 -99.9 -99.99 -9.99
2019/05/24 19:12 EDT  -99.99 -99.99   12    1   14 -99.9 -99.9 1017.9 -9.9 -9.999 -99.9 -99.99 -9.99
2019/05/24 19:18 EDT  -99.99 -99.99   11    0   15 -99.9 -99.9 1018.1 -9.9 -9.999 -99.9 -99.99 -9.99
2019/05/24 19:24 EDT  -99.99 -99.99   11  354   16 -99.9 -99.9 1018.2 -9.9 -9.999 -99.9 -99.99 -9.99
2019/05/24 19:30 EDT  -99.99 -99.99   11  355   14 -99.9 -99.9 1018.3 -9.9 -9.999 -99.9 -99.99 -9.99
2019/05/24 19:36 EDT  -99.99 -99.99    9  357   11 -99.9 -99.9 1018.3 -9.9 -9.999 -99.9 -99.99 -9.99
2019/05/24 19:42 EDT  -99.99 -99.99    8    7   10 -99.9 -99.9 1018.4 -9.9 -9.999 -99.9 -99.99 -9.99
2019/05/24 19:48 EDT  -99.99 -99.99    8   13    9 -99.9 -99.9 1018.5 -9.9 -9.999 -99.9 -99.99 -9.99
2019/05/24 19:54 EDT  -99.99 -99.99    8   15    8 -99.9 -99.9 1018.5 -9.9 -9.999 -99.9 -99.99 -9.99
2019/05/24 20:00 EDT  -99.99 -99.99    6   22    7 -99.9 -99.9 1018.6 -9.9 -9.999 -99.9 -99.99 -9.99
2019/05/24 20:06 EDT  -99.99 -99.99    6   24    8 -99.9 -99.9 1018.7 -9.9 -9.999 -99.9 -99.99 -9.99
2019/05/24 20:12 EDT  -99.99 -99.99    7   19    8 -99.9 -99.9 1018.8 -9.9 -9.999 -99.9 -99.99 -9.99
2019/05/24 20:18 EDT  -99.99 -99.99    9   23   10 -99.9 -99.9 1018.9 -9.9 -9.999 -99.9 -99.99 -9.99
2019/05/24 20:24 EDT  -99.99 -99.99   10   24   11 -99.9 -99.9 1018.9 -9.9 -9.999 -99.9 -99.99 -9.99
2019/05/24 20:30 EDT  -99.99 -99.99   11   22   11 -99.9 -99.9 1018.8 -9.9 -9.999 -99.9 -99.99 -9.99
2019/05/24 20:36 EDT  -99.99 -99.99   11   22   12 -99.9 -99.9 1018.8 -9.9 -9.999 -99.9 -99.99 -9.99
2019/05/24 20:42 EDT  -99.99 -99.99   11   23   12 -99.9 -99.9 1018.9 -9.9 -9.999 -99.9 -99.99 -9.99
2019/05/24 20:48 EDT  -99.99 -99.99   12   23   12 -99.9 -99.9 1018.9 -9.9 -9.999 -99.9 -99.99 -9.99
2019/05/24 20:54 EDT  -99.99 -99.99   12   21   13 -99.9 -99.9 1018.8 -9.9 -9.999 -99.9 -99.99 -9.99
2019/05/24 21:00 EDT  -99.99 -99.99   12   17   13 -99.9 -99.9 1018.9 -9.9 -9.999 -99.9 -99.99 -9.99
2019/05/24 21:06 EDT  -99.99 -99.99   11   14   12 -99.9 -99.9 1018.9 -9.9 -9.999 -99.9 -99.99 -9.99
2019/05/24 21:12 EDT  -99.99 -99.99   11   11   12 -99.9 -99.9 1019.1 -9.9 -9.999 -99.9 -99.99 -9.99
2019/05/24 21:18 EDT  -99.99 -99.99   11   10   12 -99.9 -99.9 1019.1 -9.9 -9.999 -99.9 -99.99 -9.99
2019/05/24 21:24 EDT  -99.99 -99.99   11    9   12 -99.9 -99.9 1019.2 -9.9 -9.999 -99.9 -99.99 -9.99
2019/05/24 21:30 EDT  -99.99 -99.99   11   12   11 -99.9 -99.9 1019.3 -9.9 -9.999 -99.9 -99.99 -9.99
2019/05/24 21:36 EDT  -99.99 -99.99   10   21   11 -99.9 -99.9 1019.3 -9.9 -9.999 -99.9 -99.99 -9.99
2019/05/24 21:42 EDT  -99.99 -99.99    9   23   10 -99.9 -99.9 1019.3 -9.9 -9.999 -99.9 -99.99 -9.99
2019/05/24 21:48 EDT  -99.99 -99.99    8   22    9 -99.9 -99.9 1019.3 -9.9 -9.999 -99.9 -99.99 -9.99
2019/05/24 21:54 EDT  -99.99 -99.99    7   20    8 -99.9 -99.9 1019.3 -9.9 -9.999 -99.9 -99.99 -9.99
2019/05/24 22:00 EDT  -99.99 -99.99    6   22    7 -99.9 -99.9 1019.4 -9.9 -9.999 -99.9 -99.99 -9.99
2019/05/24 22:06 EDT  -99.99 -99.99    6   23    6 -99.9 -99.9 1019.3 -9.9 -9.999 -99.9 -99.99 -9.99
2019/05/24 22:12 EDT  -99.99 -99.99    6   27    7 -99.9 -99.9 1019.4 -9.9 -9.999 -99.9 -99.99 -9.99
2019/05/24 22:18 EDT  -99.99 -99.99    6   30    7 -99.9 -99.9 1019.4 -9.9 -9.999 -99.9 -99.99 -9.99
2019/05/24 22:24 EDT  -99.99 -99.99    7   28    7 -99.9 -99.9 1019.4 -9.9 -9.999 -99.9 -99.99 -9.99
2019/05/24 22:30 EDT  -99.99 -99.99    9   34    9 -99.9 -99.9 1019.4 -9.9 -9.999 -99.9 -99.99 -9.99
2019/05/24 22:36 EDT  -99.99 -99.99    8   33    9 -99.9 -99.9 1019.3 -9.9 -9.999 -99.9 -99.99 -9.99
2019/05/24 22:42 EDT  -99.99 -99.99    8   38    8 -99.9 -99.9 1019.4 -9.9 -9.999 -99.9 -99.99 -9.99
2019/05/24 22:48 EDT  -99.99 -99.99    8   37    8 -99.9 -99.9 1019.3 -9.9 -9.999 -99.9 -99.99 -9.99
2019/05/24 22:54 EDT  -99.99 -99.99    7   49    8 -99.9 -99.9 1019.3 -9.9 -9.999 -99.9 -99.99 -9.99
2019/05/24 23:00 EDT  -99.99 -99.99    6   65    7 -99.9 -99.9 1019.3 -9.9 -9.999 -99.9 -99.99 -9.99
2019/05/24 23:06 EDT  -99.99 -99.99    5   78    6 -99.9 -99.9 1019.3 -9.9 -9.999 -99.9 -99.99 -9.99
2019/05/24 23:12 EDT  -99.99 -99.99    6   77    6 -99.9 -99.9 1019.2 -9.9 -9.999 -99.9 -99.99 -9.99
2019/05/24 23:18 EDT  -99.99 -99.99    4   94    5 -99.9 -99.9 1019.3 -9.9 -9.999 -99.9 -99.99 -9.99
2019/05/24 23:24 EDT  -99.99 -99.99    4   80    4 -99.9 -99.9 1019.3 -9.9 -9.999 -99.9 -99.99 -9.99
2019/05/24 23:30 EDT  -99.99 -99.99    4   78    4 -99.9 -99.9 1019.4 -9.9 -9.999 -99.9 -99.99 -9.99
2019/05/24 23:36 EDT  -99.99 -99.99    5   78    5 -99.9 -99.9 1019.4 -9.9 -9.999 -99.9 -99.99 -9.99
2019/05/24 23:42 EDT  -99.99 -99.99    5   80    5 -99.9 -99.9 1019.4 -9.9 -9.999 -99.9 -99.99 -9.99
2019/05/24 23:48 EDT  -99.99 -99.99    4   91    5 -99.9 -99.9 1019.4 -9.9 -9.999 -99.9 -99.99 -9.99
2019/05/24 23:54 EDT  -99.99 -99.99    5   88    6 -99.9 -99.9 1019.5 -9.9 -9.999 -99.9 -99.99 -9.99
2019/05/25 00:00 EDT  -99.99 -99.99    4   85    7 -99.9 -99.9 1019.5 -9.9 -9.999 -99.9 -99.99 -9.99
2019/05/25 00:06 EDT  -99.99 -99.99    4   86    5 -99.9 -99.9 1019.5 -9.9 -9.999 -99.9 -99.99 -9.99
2019/05/25 00:12 EDT  -99.99 -99.99    3   93    4 -99.9 -99.9 1019.4 -9.9 -9.999 -99.9 -99.99 -9.99
2019/05/25 00:18 EDT  -99.99 -99.99    3   96    3 -99.9 -99.9 1019.6 -9.9 -9.999 -99.9 -99.99 -9.99
2019/05/25 00:24 EDT  -99.99 -99.99    2  115    3 -99.9 -99.9 1019.6 -9.9 -9.999 -99.9 -99.99 -9.99
2019/05/25 00:30 EDT  -99.99 -99.99    2  127    2 -99.9 -99.9 1019.7 -9.9 -9.999 -99.9 -99.99 -9.99
2019/05/25 00:36 EDT  -99.99 -99.99    2  151    3 -99.9 -99.9 1019.8 -9.9 -9.999 -99.9 -99.99 -9.99
2019/05/25 00:42 EDT  -99.99 -99.99    3  160    3 -99.9 -99.9 1019.8 -9.9 -9.999 -99.9 -99.99 -9.99
2019/05/25 00:48 EDT  -99.99 -99.99    2  171    3 -99.9 -99.9 1019.7 -9.9 -9.999 -99.9 -99.99 -9.99
2019/05/25 00:54 EDT  -99.99 -99.99    2  165    3 -99.9 -99.9 1019.7 -9.9 -9.999 -99.9 -99.99 -9.99
2019/05/25 01:00 EDT  -99.99 -99.99    3  174    4 -99.9 -99.9 1019.7 -9.9 -9.999 -99.9 -99.99 -9.99
2019/05/25 01:06 EDT  -99.99 -99.99    3  165    4 -99.9 -99.9 1019.7 -9.9 -9.999 -99.9 -99.99 -9.99
2019/05/25 01:12 EDT  -99.99 -99.99    3  173    3 -99.9 -99.9 1019.7 -9.9 -9.999 -99.9 -99.99 -9.99
2019/05/25 01:18 EDT  -99.99 -99.99    3  177    3 -99.9 -99.9 1019.7 -9.9 -9.999 -99.9 -99.99 -9.99
2019/05/25 01:24 EDT  -99.99 -99.99    3  171    3 -99.9 -99.9 1019.7 -9.9 -9.999 -99.9 -99.99 -9.99
2019/05/25 01:30 EDT  -99.99 -99.99    2  174    3 -99.9 -99.9 1019.7 -9.9 -9.999 -99.9 -99.99 -9.99
2019/05/25 01:36 EDT  -99.99 -99.99    2  161    2 -99.9 -99.9 1019.7 -9.9 -9.999 -99.9 -99.99 -9.99
2019/05/25 01:42 EDT  -99.99 -99.99    2  166    2 -99.9 -99.9 1019.8 -9.9 -9.999 -99.9 -99.99 -9.99
2019/05/25 01:48 EDT  -99.99 -99.99    1  167    2 -99.9 -99.9 1019.8 -9.9 -9.999 -99.9 -99.99 -9.99
2019/05/25 01:54 EDT  -99.99 -99.99    2  175    2 -99.9 -99.9 1019.8 -9.9 -9.999 -99.9 -99.99 -9.99
2019/05/25 02:00 EDT  -99.99 -99.99    9   70   19 -99.9 -99.9 1020.0 -9.9 -9.999 -99.9 -99.99 -9.99
2019/05/25 02:06 EDT  -99.99 -99.99   18   74   24 -99.9 -99.9 1020.1 -9.9 -9.999 -99.9 -99.99 -9.99
2019/05/25 02:12 EDT  -99.99 -99.99   16   73   18 -99.9 -99.9 1020.2 -9.9 -9.999 -99.9 -99.99 -9.99
2019/05/25 02:18 EDT  -99.99 -99.99   16   86   17 -99.9 -99.9 1020.2 -9.9 -9.999 -99.9 -99.99 -9.99
2019/05/25 02:24 EDT  -99.99 -99.99   14   89   17 -99.9 -99.9 1020.1 -9.9 -9.999 -99.9 -99.99 -9.99
2019/05/25 02:30 EDT  -99.99 -99.99   14   90   16 -99.9 -99.9 1020.1 -9.9 -9.999 -99.9 -99.99 -9.99
2019/05/25 02:36 EDT  -99.99 -99.99   14   94   17 -99.9 -99.9 1020.1 -9.9 -9.999 -99.9 -99.99 -9.99
2019/05/25 02:42 EDT  -99.99 -99.99   12   97   15 -99.9 -99.9 1020.2 -9.9 -9.999 -99.9 -99.99 -9.99
2019/05/25 02:48 EDT  -99.99 -99.99   13   91   16 -99.9 -99.9 1020.2 -9.9 -9.999 -99.9 -99.99 -9.99
2019/05/25 02:54 EDT  -99.99 -99.99   13   89   15 -99.9 -99.9 1020.2 -9.9 -9.999 -99.9 -99.99 -9.99
2019/05/25 03:00 EDT  -99.99 -99.99   11   89   14 -99.9 -99.9 1020.3 -9.9 -9.999 -99.9 -99.99 -9.99
2019/05/25 03:06 EDT  -99.99 -99.99   11   89   13 -99.9 -99.9 1020.3 -9.9 -9.999 -99.9 -99.99 -9.99
2019/05/25 03:12 EDT  -99.99 -99.99   10   89   12 -99.9 -99.9 1020.3 -9.9 -9.999 -99.9 -99.99 -9.99
2019/05/25 03:18 EDT  -99.99 -99.99   10   87   12 -99.9 -99.9 1020.3 -9.9 -9.999 -99.9 -99.99 -9.99
2019/05/25 03:24 EDT  -99.99 -99.99   10   90   11 -99.9 -99.9 1020.3 -9.9 -9.999 -99.9 -99.99 -9.99
2019/05/25 03:30 EDT  -99.99 -99.99   10   80   12 -99.9 -99.9 1020.2 -9.9 -9.999 -99.9 -99.99 -9.99
2019/05/25 03:36 EDT  -99.99 -99.99   11   77   13 -99.9 -99.9 1020.4 -9.9 -9.999 -99.9 -99.99 -9.99
2019/05/25 03:42 EDT  -99.99 -99.99   11   79   12 -99.9 -99.9 1020.4 -9.9 -9.999 -99.9 -99.99 -9.99
2019/05/25 03:48 EDT  -99.99 -99.99   10   80   12 -99.9 -99.9 1020.5 -9.9 -9.999 -99.9 -99.99 -9.99
2019/05/25 03:54 EDT  -99.99 -99.99   11   80   13 -99.9 -99.9 1020.4 -9.9 -9.999 -99.9 -99.99 -9.99
2019/05/25 04:00 EDT  -99.99 -99.99    9   73   12 -99.9 -99.9 1020.4 -9.9 -9.999 -99.9 -99.99 -9.99
2019/05/25 04:06 EDT  -99.99 -99.99    9   74   11 -99.9 -99.9 1020.6 -9.9 -9.999 -99.9 -99.99 -9.99
2019/05/25 04:12 EDT  -99.99 -99.99    9   76   11 -99.9 -99.9 1020.7 -9.9 -9.999 -99.9 -99.99 -9.99
2019/05/25 04:18 EDT  -99.99 -99.99   10   75   12 -99.9 -99.9 1020.8 -9.9 -9.999 -99.9 -99.99 -9.99
2019/05/25 04:24 EDT  -99.99 -99.99   10   80   12 -99.9 -99.9 1020.8 -9.9 -9.999 -99.9 -99.99 -9.99
2019/05/25 04:30 EDT  -99.99 -99.99    9   82   11 -99.9 -99.9 1020.8 -9.9 -9.999 -99.9 -99.99 -9.99
2019/05/25 04:36 EDT  -99.99 -99.99    9   81   10 -99.9 -99.9 1020.8 -9.9 -9.999 -99.9 -99.99 -9.99
2019/05/25 04:42 EDT  -99.99 -99.99    9   82   10 -99.9 -99.9 1020.9 -9.9 -9.999 -99.9 -99.99 -9.99
2019/05/25 04:48 EDT  -99.99 -99.99    8   78   10 -99.9 -99.9 1021.0 -9.9 -9.999 -99.9 -99.99 -9.99
2019/05/25 04:54 EDT  -99.99 -99.99    9   75   10 -99.9 -99.9 1021.1 -9.9 -9.999 -99.9 -99.99 -9.99
2019/05/25 05:00 EDT  -99.99 -99.99    9   80   10 -99.9 -99.9 1021.3 -9.9 -9.999 -99.9 -99.99 -9.99
2019/05/25 05:06 EDT  -99.99 -99.99    9   80   10 -99.9 -99.9 1021.3 -9.9 -9.999 -99.9 -99.99 -9.99
2019/05/25 05:12 EDT  -99.99 -99.99    9   83   10 -99.9 -99.9 1021.4 -9.9 -9.999 -99.9 -99.99 -9.99
2019/05/25 05:18 EDT  -99.99 -99.99    9   84   10 -99.9 -99.9 1021.4 -9.9 -9.999 -99.9 -99.99 -9.99
2019/05/25 05:24 EDT  -99.99 -99.99    7   87   10 -99.9 -99.9 1021.4 -9.9 -9.999 -99.9 -99.99 -9.99
2019/05/25 05:30 EDT  -99.99 -99.99    8   89   10 -99.9 -99.9 1021.6 -9.9 -9.999 -99.9 -99.99 -9.99
2019/05/25 05:36 EDT  -99.99 -99.99    8   82    9 -99.9 -99.9 1021.7 -9.9 -9.999 -99.9 -99.99 -9.99
2019/05/25 05:42 EDT  -99.99 -99.99    8   81   11 -99.9 -99.9 1021.8 -9.9 -9.999 -99.9 -99.99 -9.99
2019/05/25 05:48 EDT  -99.99 -99.99    6   85    9 -99.9 -99.9 1022.0 -9.9 -9.999 -99.9 -99.99 -9.99
2019/05/25 05:54 EDT  -99.99 -99.99    8   90   10 -99.9 -99.9 1022.0 -9.9 -9.999 -99.9 -99.99 -9.99
2019/05/25 06:00 EDT  -99.99 -99.99    6   86    9 -99.9 -99.9 1022.1 -9.9 -9.999 -99.9 -99.99 -9.99
2019/05/25 06:06 EDT  -99.99 -99.99    7   83    9 -99.9 -99.9 1022.1 -9.9 -9.999 -99.9 -99.99 -9.99
2019/05/25 06:12 EDT  -99.99 -99.99    7   85    9 -99.9 -99.9 1022.3 -9.9 -9.999 -99.9 -99.99 -9.99
2019/05/25 06:18 EDT  -99.99 -99.99    8   80    9 -99.9 -99.9 1022.3 -9.9 -9.999 -99.9 -99.99 -9.99
2019/05/25 06:24 EDT  -99.99 -99.99    8   81   10 -99.9 -99.9 1022.4 -9.9 -9.999 -99.9 -99.99 -9.99
2019/05/25 06:30 EDT  -99.99 -99.99    7   81   10 -99.9 -99.9 1022.6 -9.9 -9.999 -99.9 -99.99 -9.99
2019/05/25 06:36 EDT  -99.99 -99.99    7   82    9 -99.9 -99.9 1022.6 -9.9 -9.999 -99.9 -99.99 -9.99
2019/05/25 06:42 EDT  -99.99 -99.99    7   85    9 -99.9 -99.9 1022.9 -9.9 -9.999 -99.9 -99.99 -9.99
2019/05/25 06:48 EDT  -99.99 -99.99    7   88    9 -99.9 -99.9 1022.9 -9.9 -9.999 -99.9 -99.99 -9.99
2019/05/25 06:54 EDT  -99.99 -99.99    7   93    9 -99.9 -99.9 1022.9 -9.9 -9.999 -99.9 -99.99 -9.99
2019/05/25 07:00 EDT  -99.99 -99.99    7   88    9 -99.9 -99.9 1023.1 -9.9 -9.999 -99.9 -99.99 -9.99
2019/05/25 07:06 EDT  -99.99 -99.99    7   90    9 -99.9 -99.9 1023.0 -9.9 -9.999 -99.9 -99.99 -9.99
2019/05/25 07:12 EDT  -99.99 -99.99    7   93    9 -99.9 -99.9 1023.1 -9.9 -9.999 -99.9 -99.99 -9.99
2019/05/25 07:18 EDT  -99.99 -99.99    7   90    9 -99.9 -99.9 1023.1 -9.9 -9.999 -99.9 -99.99 -9.99
2019/05/25 07:24 EDT  -99.99 -99.99    7   81    9 -99.9 -99.9 1023.1 -9.9 -9.999 -99.9 -99.99 -9.99
2019/05/25 07:30 EDT  -99.99 -99.99    8   75   10 -99.9 -99.9 1023.2 -9.9 -9.999 -99.9 -99.99 -9.99
2019/05/25 07:36 EDT  -99.99 -99.99    8   68   10 -99.9 -99.9 1023.2 -9.9 -9.999 -99.9 -99.99 -9.99
2019/05/25 07:42 EDT  -99.99 -99.99    9   70   10 -99.9 -99.9 1023.3 -9.9 -9.999 -99.9 -99.99 -9.99
2019/05/25 07:48 EDT  -99.99 -99.99    7   91    9 -99.9 -99.9 1023.1 -9.9 -9.999 -99.9 -99.99 -9.99
2019/05/25 07:54 EDT  -99.99 -99.99    8   86    9 -99.9 -99.9 1023.1 -9.9 -9.999 -99.9 -99.99 -9.99
2019/05/25 08:00 EDT  -99.99 -99.99    8   82    9 -99.9 -99.9 1023.3 -9.9 -9.999 -99.9 -99.99 -9.99
2019/05/25 08:06 EDT  -99.99 -99.99    7   93    9 -99.9 -99.9 1023.4 -9.9 -9.999 -99.9 -99.99 -9.99
2019/05/25 08:12 EDT  -99.99 -99.99    7   90    8 -99.9 -99.9 1023.4 -9.9 -9.999 -99.9 -99.99 -9.99
2019/05/25 08:18 EDT  -99.99 -99.99    7   84   10 -99.9 -99.9 1023.5 -9.9 -9.999 -99.9 -99.99 -9.99
2019/05/25 08:24 EDT  -99.99 -99.99    9   96   11 -99.9 -99.9 1023.5 -9.9 -9.999 -99.9 -99.99 -9.99
2019/05/25 08:30 EDT  -99.99 -99.99    8   97   10 -99.9 -99.9 1023.5 -9.9 -9.999 -99.9 -99.99 -9.99
2019/05/25 08:36 EDT  -99.99 -99.99    9   91   10 -99.9 -99.9 1023.5 -9.9 -9.999 -99.9 -99.99 -9.99
2019/05/25 08:42 EDT  -99.99 -99.99   11  101   13 -99.9 -99.9 1023.4 -9.9 -9.999 -99.9 -99.99 -9.99
2019/05/25 08:48 EDT  -99.99 -99.99   11   95   13 -99.9 -99.9 1023.4 -9.9 -9.999 -99.9 -99.99 -9.99
2019/05/25 08:54 EDT  -99.99 -99.99   11   96   13 -99.9 -99.9 1023.4 -9.9 -9.999 -99.9 -99.99 -9.99
2019/05/25 09:00 EDT  -99.99 -99.99   12   91   14 -99.9 -99.9 1023.4 -9.9 -9.999 -99.9 -99.99 -9.99
2019/05/25 09:06 EDT  -99.99 -99.99   11   85   13 -99.9 -99.9 1023.5 -9.9 -9.999 -99.9 -99.99 -9.99
2019/05/25 09:12 EDT  -99.99 -99.99   11   92   13 -99.9 -99.9 1023.5 -9.9 -9.999 -99.9 -99.99 -9.99
2019/05/25 09:18 EDT  -99.99 -99.99   11   94   13 -99.9 -99.9 1023.5 -9.9 -9.999 -99.9 -99.99 -9.99
2019/05/25 09:24 EDT  -99.99 -99.99   11   89   13 -99.9 -99.9 1023.3 -9.9 -9.999 -99.9 -99.99 -9.99
2019/05/25 09:30 EDT  -99.99 -99.99   12   85   13 -99.9 -99.9 1023.3 -9.9 -9.999 -99.9 -99.99 -9.99
2019/05/25 09:36 EDT  -99.99 -99.99   11   90   13 -99.9 -99.9 1023.2 -9.9 -9.999 -99.9 -99.99 -9.99
2019/05/25 09:42 EDT  -99.99 -99.99   12   83   13 -99.9 -99.9 1023.3 -9.9 -9.999 -99.9 -99.99 -9.99
2019/05/25 09:48 EDT  -99.99 -99.99   11   89   13 -99.9 -99.9 1023.4 -9.9 -9.999 -99.9 -99.99 -9.99
2019/05/25 09:54 EDT  -99.99 -99.99   10  101   12 -99.9 -99.9 1023.4 -9.9 -9.999 -99.9 -99.99 -9.99
2019/05/25 10:00 EDT  -99.99 -99.99   11   92   13 -99.9 -99.9 1023.3 -9.9 -9.999 -99.9 -99.99 -9.99
2019/05/25 10:06 EDT  -99.99 -99.99   12  105   13 -99.9 -99.9 1023.3 -9.9 -9.999 -99.9 -99.99 -9.99
2019/05/25 10:12 EDT  -99.99 -99.99    9  102   12 -99.9 -99.9 1023.2 -9.9 -9.999 -99.9 -99.99 -9.99
2019/05/25 10:18 EDT  -99.99 -99.99   10  104   13 -99.9 -99.9 1023.3 -9.9 -9.999 -99.9 -99.99 -9.99
2019/05/25 10:24 EDT  -99.99 -99.99    9  108   11 -99.9 -99.9 1023.4 -9.9 -9.999 -99.9 -99.99 -9.99
2019/05/25 10:30 EDT  -99.99 -99.99   10  106   11 -99.9 -99.9 1023.6 -9.9 -9.999 -99.9 -99.99 -9.99
2019/05/25 10:36 EDT  -99.99 -99.99   10  112   11 -99.9 -99.9 1023.7 -9.9 -9.999 -99.9 -99.99 -9.99
2019/05/25 10:42 EDT  -99.99 -99.99    9  113   11 -99.9 -99.9 1023.7 -9.9 -9.999 -99.9 -99.99 -9.99
2019/05/25 10:48 EDT  -99.99 -99.99   11  121   12 -99.9 -99.9 1023.7 -9.9 -9.999 -99.9 -99.99 -9.99
2019/05/25 10:54 EDT  -99.99 -99.99   11  112   12 -99.9 -99.9 1023.8 -9.9 -9.999 -99.9 -99.99 -9.99
2019/05/25 11:00 EDT  -99.99 -99.99   11  118   12 -99.9 -99.9 1023.7 -9.9 -9.999 -99.9 -99.99 -9.99
2019/05/25 11:06 EDT  -99.99 -99.99    9  112   11 -99.9 -99.9 1023.7 -9.9 -9.999 -99.9 -99.99 -9.99
2019/05/25 11:12 EDT  -99.99 -99.99   10  116   11 -99.9 -99.9 1023.7 -9.9 -9.999 -99.9 -99.99 -9.99
2019/05/25 11:18 EDT  -99.99 -99.99    9  121   11 -99.9 -99.9 1023.8 -9.9 -9.999 -99.9 -99.99 -9.99
2019/05/25 11:24 EDT  -99.99 -99.99    8  114   11 -99.9 -99.9 1023.8 -9.9 -9.999 -99.9 -99.99 -9.99
2019/05/25 11:30 EDT  -99.99 -99.99    8  121   11 -99.9 -99.9 1023.9 -9.9 -9.999 -99.9 -99.99 -9.99
2019/05/25 11:36 EDT  -99.99 -99.99   10  112   11 -99.9 -99.9 1023.9 -9.9 -9.999 -99.9 -99.99 -9.99
2019/05/25 11:42 EDT  -99.99 -99.99    8  107    9 -99.9 -99.9 1024.0 -9.9 -9.999 -99.9 -99.99 -9.99
2019/05/25 11:48 EDT  -99.99 -99.99   10  115   11 -99.9 -99.9 1023.9 -9.9 -9.999 -99.9 -99.99 -9.99
2019/05/25 11:54 EDT  -99.99 -99.99   10  108   11 -99.9 -99.9 1024.0 -9.9 -9.999 -99.9 -99.99 -9.99
2019/05/25 12:00 EDT  -99.99 -99.99   10  104   11 -99.9 -99.9 1024.0 -9.9 -9.999 -99.9 -99.99 -9.99
2019/05/25 12:06 EDT  -99.99 -99.99   11  108   11 -99.9 -99.9 1023.9 -9.9 -9.999 -99.9 -99.99 -9.99
2019/05/25 12:12 EDT  -99.99 -99.99   10  104   11 -99.9 -99.9 1023.9 -9.9 -9.999 -99.9 -99.99 -9.99
2019/05/25 12:18 EDT  -99.99 -99.99   11  107   13 -99.9 -99.9 1023.8 -9.9 -9.999 -99.9 -99.99 -9.99
2019/05/25 12:24 EDT  -99.99 -99.99   11   98   12 -99.9 -99.9 1023.7 -9.9 -9.999 -99.9 -99.99 -9.99
2019/05/25 12:30 EDT  -99.99 -99.99   10  103   12 -99.9 -99.9 1023.7 -9.9 -9.999 -99.9 -99.99 -9.99
2019/05/25 12:36 EDT  -99.99 -99.99   10  101   11 -99.9 -99.9 1023.7 -9.9 -9.999 -99.9 -99.99 -9.99
2019/05/25 12:42 EDT  -99.99 -99.99   12  105   13 -99.9 -99.9 1023.7 -9.9 -9.999 -99.9 -99.99 -9.99
2019/05/25 12:48 EDT  -99.99 -99.99   11  109   14 -99.9 -99.9 1023.6 -9.9 -9.999 -99.9 -99.99 -9.99
2019/05/25 12:54 EDT  -99.99 -99.99   11  111   13 -99.9 -99.9 1023.5 -9.9 -9.999 -99.9 -99.99 -9.99
2019/05/25 13:00 EDT  -99.99 -99.99   10  112   13 -99.9 -99.9 1023.6 -9.9 -9.999 -99.9 -99.99 -9.99
2019/05/25 13:06 EDT  -99.99 -99.99   11  118   12 -99.9 -99.9 1023.7 -9.9 -9.999 -99.9 -99.99 -9.99
2019/05/25 13:12 EDT  -99.99 -99.99   11  111   12 -99.9 -99.9 1023.6 -9.9 -9.999 -99.9 -99.99 -9.99
2019/05/25 13:18 EDT  -99.99 -99.99   11  111   13 -99.9 -99.9 1023.6 -9.9 -9.999 -99.9 -99.99 -9.99
2019/05/25 13:24 EDT  -99.99 -99.99   11  113   13 -99.9 -99.9 1023.5 -9.9 -9.999 -99.9 -99.99 -9.99
2019/05/25 13:30 EDT  -99.99 -99.99   12  115   13 -99.9 -99.9 1023.4 -9.9 -9.999 -99.9 -99.99 -9.99
2019/05/25 13:36 EDT  -99.99 -99.99   11  109   12 -99.9 -99.9 1023.4 -9.9 -9.999 -99.9 -99.99 -9.99
2019/05/25 13:42 EDT  -99.99 -99.99   10  109   11 -99.9 -99.9 1023.4 -9.9 -9.999 -99.9 -99.99 -9.99
2019/05/25 13:48 EDT  -99.99 -99.99   11  112   13 -99.9 -99.9 1023.3 -9.9 -9.999 -99.9 -99.99 -9.99
2019/05/25 13:54 EDT  -99.99 -99.99   12  107   13 -99.9 -99.9 1023.3 -9.9 -9.999 -99.9 -99.99 -9.99
2019/05/25 14:00 EDT  -99.99 -99.99   12  102   13 -99.9 -99.9 1023.1 -9.9 -9.999 -99.9 -99.99 -9.99
2019/05/25 14:06 EDT  -99.99 -99.99   12  102   14 -99.9 -99.9 1023.1 -9.9 -9.999 -99.9 -99.99 -9.99
2019/05/25 14:12 EDT  -99.99 -99.99   11  114   13 -99.9 -99.9 1023.1 -9.9 -9.999 -99.9 -99.99 -9.99
2019/05/25 14:18 EDT  -99.99 -99.99   12  105   15 -99.9 -99.9 1023.1 -9.9 -9.999 -99.9 -99.99 -9.99
2019/05/25 14:24 EDT  -99.99 -99.99   12  109   14 -99.9 -99.9 1023.0 -9.9 -9.999 -99.9 -99.99 -9.99
2019/05/25 14:30 EDT  -99.99 -99.99   12  111   14 -99.9 -99.9 1023.0 -9.9 -9.999 -99.9 -99.99 -9.99
2019/05/25 14:36 EDT  -99.99 -99.99   12  110   14 -99.9 -99.9 1022.9 -9.9 -9.999 -99.9 -99.99 -9.99
2019/05/25 14:42 EDT  -99.99 -99.99   13  105   14 -99.9 -99.9 1022.9 -9.9 -9.999 -99.9 -99.99 -9.99
2019/05/25 14:48 EDT  -99.99 -99.99   14  102   15 -99.9 -99.9 1022.9 -9.9 -9.999 -99.9 -99.99 -9.99
2019/05/25 14:54 EDT  -99.99 -99.99   14  111   16 -99.9 -99.9 1022.7 -9.9 -9.999 -99.9 -99.99 -9.99
2019/05/25 15:00 EDT  -99.99 -99.99   15  111   16 -99.9 -99.9 1022.6 -9.9 -9.999 -99.9 -99.99 -9.99
2019/05/25 15:06 EDT  -99.99 -99.99   15  112   17 -99.9 -99.9 1022.3 -9.9 -9.999 -99.9 -99.99 -9.99
2019/05/25 15:12 EDT  -99.99 -99.99   15  119   16 -99.9 -99.9 1022.3 -9.9 -9.999 -99.9 -99.99 -9.99
2019/05/25 15:18 EDT  -99.99 -99.99   16  111   17 -99.9 -99.9 1022.2 -9.9 -9.999 -99.9 -99.99 -9.99
2019/05/25 15:24 EDT  -99.99 -99.99   16  110   18 -99.9 -99.9 1022.0 -9.9 -9.999 -99.9 -99.99 -9.99
2019/05/25 15:30 EDT  -99.99 -99.99   15  112   18 -99.9 -99.9 1021.8 -9.9 -9.999 -99.9 -99.99 -9.99
2019/05/25 15:36 EDT  -99.99 -99.99   14  111   18 -99.9 -99.9 1021.7 -9.9 -9.999 -99.9 -99.99 -9.99
2019/05/25 15:42 EDT  -99.99 -99.99   15  113   17 -99.9 -99.9 1021.7 -9.9 -9.999 -99.9 -99.99 -9.99
2019/05/25 15:48 EDT  -99.99 -99.99   16  112   17 -99.9 -99.9 1021.7 -9.9 -9.999 -99.9 -99.99 -9.99
2019/05/25 15:54 EDT  -99.99 -99.99   14  116   17 -99.9 -99.9 1021.7 -9.9 -9.999 -99.9 -99.99 -9.99
2019/05/25 16:00 EDT  -99.99 -99.99   16  115   17 -99.9 -99.9 1021.7 -9.9 -9.999 -99.9 -99.99 -9.99
2019/05/25 16:06 EDT  -99.99 -99.99   15  112   17 -99.9 -99.9 1021.6 -9.9 -9.999 -99.9 -99.99 -9.99
2019/05/25 16:12 EDT  -99.99 -99.99   17  113   19 -99.9 -99.9 1021.4 -9.9 -9.999 -99.9 -99.99 -9.99
2019/05/25 16:18 EDT  -99.99 -99.99   16  112   18 -99.9 -99.9 1021.2 -9.9 -9.999 -99.9 -99.99 -9.99
2019/05/25 16:24 EDT  -99.99 -99.99   17  111   17 -99.9 -99.9 1021.2 -9.9 -9.999 -99.9 -99.99 -9.99
2019/05/25 16:30 EDT  -99.99 -99.99   15  120   18 -99.9 -99.9 1021.2 -9.9 -9.999 -99.9 -99.99 -9.99
2019/05/25 16:36 EDT  -99.99 -99.99   14  117   17 -99.9 -99.9 1021.2 -9.9 -9.999 -99.9 -99.99 -9.99
2019/05/25 16:42 EDT  -99.99 -99.99   15  122   18 -99.9 -99.9 1021.1 -9.9 -9.999 -99.9 -99.99 -9.99
2019/05/25 16:48 EDT  -99.99 -99.99   14  119   16 -99.9 -99.9 1021.1 -9.9 -9.999 -99.9 -99.99 -9.99
2019/05/25 16:54 EDT  -99.99 -99.99   16  125   17 -99.9 -99.9 1021.1 -9.9 -9.999 -99.9 -99.99 -9.99
2019/05/25 17:00 EDT  -99.99 -99.99   15  122   18 -99.9 -99.9 1021.0 -9.9 -9.999 -99.9 -99.99 -9.99
2019/05/25 17:06 EDT  -99.99 -99.99   13  125   15 -99.9 -99.9 1021.0 -9.9 -9.999 -99.9 -99.99 -9.99
2019/05/25 17:12 EDT  -99.99 -99.99   15  124   17 -99.9 -99.9 1021.1 -9.9 -9.999 -99.9 -99.99 -9.99
2019/05/25 17:18 EDT  -99.99 -99.99   15  125   17 -99.9 -99.9 1021.1 -9.9 -9.999 -99.9 -99.99 -9.99
2019/05/25 17:24 EDT  -99.99 -99.99   17  130   19 -99.9 -99.9 1020.8 -9.9 -9.999 -99.9 -99.99 -9.99
2019/05/25 17:30 EDT  -99.99 -99.99   17  133   19 -99.9 -99.9 1020.9 -9.9 -9.999 -99.9 -99.99 -9.99
2019/05/25 17:36 EDT  -99.99 -99.99   15  134   18 -99.9 -99.9 1020.9 -9.9 -9.999 -99.9 -99.99 -9.99
2019/05/25 17:42 EDT  -99.99 -99.99   16  131   19 -99.9 -99.9 1020.8 -9.9 -9.999 -99.9 -99.99 -9.99
2019/05/25 17:48 EDT  -99.99 -99.99   15  133   18 -99.9 -99.9 1020.8 -9.9 -9.999 -99.9 -99.99 -9.99
2019/05/25 17:54 EDT  -99.99 -99.99   15  134   17 -99.9 -99.9 1020.8 -9.9 -9.999 -99.9 -99.99 -9.99
2019/05/25 18:00 EDT  -99.99 -99.99   14  135   18 -99.9 -99.9 1020.8 -9.9 -9.999 -99.9 -99.99 -9.99
2019/05/25 18:06 EDT  -99.99 -99.99   15  134   17 -99.9 -99.9 1020.7 -9.9 -9.999 -99.9 -99.99 -9.99
2019/05/25 18:12 EDT  -99.99 -99.99   17  132   18 -99.9 -99.9 1020.8 -9.9 -9.999 -99.9 -99.99 -9.99
2019/05/25 18:18 EDT  -99.99 -99.99   15  127   20 -99.9 -99.9 1020.6 -9.9 -9.999 -99.9 -99.99 -9.99
2019/05/25 18:24 EDT  -99.99 -99.99   17  131   18 -99.9 -99.9 1020.5 -9.9 -9.999 -99.9 -99.99 -9.99
2019/05/25 18:30 EDT  -99.99 -99.99   17  129   19 -99.9 -99.9 1020.3 -9.9 -9.999 -99.9 -99.99 -9.99
2019/05/25 18:36 EDT  -99.99 -99.99   18  130   19 -99.9 -99.9 1020.4 -9.9 -9.999 -99.9 -99.99 -9.99
2019/05/25 18:42 EDT  -99.99 -99.99   17  131   19 -99.9 -99.9 1020.2 -9.9 -9.999 -99.9 -99.99 -9.99
2019/05/25 18:48 EDT  -99.99 -99.99   16  131   18 -99.9 -99.9 1020.1 -9.9 -9.999 -99.9 -99.99 -9.99
2019/05/25 18:54 EDT  -99.99 -99.99   15  135   19 -99.9 -99.9 1020.1 -9.9 -9.999 -99.9 -99.99 -9.99
2019/05/25 19:00 EDT  -99.99 -99.99   14  134   17 -99.9 -99.9 1020.2 -9.9 -9.999 -99.9 -99.99 -9.99
2019/05/25 19:06 EDT  -99.99 -99.99   15  135   19 -99.9 -99.9 1020.2 -9.9 -9.999 -99.9 -99.99 -9.99
2019/05/25 19:12 EDT  -99.99 -99.99   15  137   18 -99.9 -99.9 1020.1 -9.9 -9.999 -99.9 -99.99 -9.99
2019/05/25 19:18 EDT  -99.99 -99.99   16  137   19 -99.9 -99.9 1020.2 -9.9 -9.999 -99.9 -99.99 -9.99
2019/05/25 19:24 EDT  -99.99 -99.99   17  141   19 -99.9 -99.9 1020.2 -9.9 -9.999 -99.9 -99.99 -9.99
2019/05/25 19:30 EDT  -99.99 -99.99   14  140   17 -99.9 -99.9 1020.2 -9.9 -9.999 -99.9 -99.99 -9.99
2019/05/25 19:36 EDT  -99.99 -99.99   15  139   17 -99.9 -99.9 1020.3 -9.9 -9.999 -99.9 -99.99 -9.99
2019/05/25 19:42 EDT  -99.99 -99.99   17  137   18 -99.9 -99.9 1020.3 -9.9 -9.999 -99.9 -99.99 -9.99
2019/05/25 19:48 EDT  -99.99 -99.99   16  138   21 -99.9 -99.9 1020.1 -9.9 -9.999 -99.9 -99.99 -9.99
2019/05/25 19:54 EDT  -99.99 -99.99   16  139   18 -99.9 -99.9 1020.2 -9.9 -9.999 -99.9 -99.99 -9.99
2019/05/25 20:00 EDT  -99.99 -99.99   16  141   18 -99.9 -99.9 1020.2 -9.9 -9.999 -99.9 -99.99 -9.99
2019/05/25 20:06 EDT  -99.99 -99.99   17  141   18 -99.9 -99.9 1020.0 -9.9 -9.999 -99.9 -99.99 -9.99
2019/05/25 20:12 EDT  -99.99 -99.99   15  140   18 -99.9 -99.9 1020.0 -9.9 -9.999 -99.9 -99.99 -9.99
2019/05/25 20:18 EDT  -99.99 -99.99   15  142   17 -99.9 -99.9 1019.9 -9.9 -9.999 -99.9 -99.99 -9.99
2019/05/25 20:24 EDT  -99.99 -99.99   14  142   17 -99.9 -99.9 1019.9 -9.9 -9.999 -99.9 -99.99 -9.99
2019/05/25 20:30 EDT  -99.99 -99.99   16  141   18 -99.9 -99.9 1019.9 -9.9 -9.999 -99.9 -99.99 -9.99
2019/05/25 20:36 EDT  -99.99 -99.99   16  143   19 -99.9 -99.9 1019.7 -9.9 -9.999 -99.9 -99.99 -9.99
2019/05/25 20:42 EDT  -99.99 -99.99   15  146   17 -99.9 -99.9 1019.8 -9.9 -9.999 -99.9 -99.99 -9.99
2019/05/25 20:48 EDT  -99.99 -99.99   16  146   18 -99.9 -99.9 1019.9 -9.9 -9.999 -99.9 -99.99 -9.99
2019/05/25 20:54 EDT  -99.99 -99.99   17  146   19 -99.9 -99.9 1019.8 -9.9 -9.999 -99.9 -99.99 -9.99
2019/05/25 21:00 EDT  -99.99 -99.99   17  142   18 -99.9 -99.9 1019.8 -9.9 -9.999 -99.9 -99.99 -9.99
2019/05/25 21:06 EDT  -99.99 -99.99   16  141   19 -99.9 -99.9 1019.8 -9.9 -9.999 -99.9 -99.99 -9.99
2019/05/25 21:12 EDT  -99.99 -99.99   16  147   18 -99.9 -99.9 1019.9 -9.9 -9.999 -99.9 -99.99 -9.99
2019/05/25 21:18 EDT  -99.99 -99.99   16  147   18 -99.9 -99.9 1020.0 -9.9 -9.999 -99.9 -99.99 -9.99
2019/05/25 21:24 EDT  -99.99 -99.99   16  149   18 -99.9 -99.9 1020.0 -9.9 -9.999 -99.9 -99.99 -9.99
2019/05/25 21:30 EDT  -99.99 -99.99   16  150   19 -99.9 -99.9 1019.7 -9.9 -9.999 -99.9 -99.99 -9.99
2019/05/25 21:36 EDT  -99.99 -99.99   17  150   20 -99.9 -99.9 1019.6 -9.9 -9.999 -99.9 -99.99 -9.99
2019/05/25 21:42 EDT  -99.99 -99.99   17  149   19 -99.9 -99.9 1019.7 -9.9 -9.999 -99.9 -99.99 -9.99
2019/05/25 21:48 EDT  -99.99 -99.99   16  146   19 -99.9 -99.9 1019.9 -9.9 -9.999 -99.9 -99.99 -9.99
2019/05/25 21:54 EDT  -99.99 -99.99   15  149   19 -99.9 -99.9 1019.9 -9.9 -9.999 -99.9 -99.99 -9.99
2019/05/25 22:00 EDT  -99.99 -99.99   15  149   18 -99.9 -99.9 1020.1 -9.9 -9.999 -99.9 -99.99 -9.99
2019/05/25 22:06 EDT  -99.99 -99.99   17  149   19 -99.9 -99.9 1020.1 -9.9 -9.999 -99.9 -99.99 -9.99
2019/05/25 22:12 EDT  -99.99 -99.99   16  148   20 -99.9 -99.9 1019.9 -9.9 -9.999 -99.9 -99.99 -9.99
2019/05/25 22:18 EDT  -99.99 -99.99   17  151   19 -99.9 -99.9 1019.9 -9.9 -9.999 -99.9 -99.99 -9.99
2019/05/25 22:24 EDT  -99.99 -99.99   17  153   20 -99.9 -99.9 1019.8 -9.9 -9.999 -99.9 -99.99 -9.99
2019/05/25 22:30 EDT  -99.99 -99.99   17  150   20 -99.9 -99.9 1019.8 -9.9 -9.999 -99.9 -99.99 -9.99
2019/05/25 22:36 EDT  -99.99 -99.99   17  153   19 -99.9 -99.9 1019.7 -9.9 -9.999 -99.9 -99.99 -9.99
2019/05/25 22:42 EDT  -99.99 -99.99   17  151   18 -99.9 -99.9 1019.4 -9.9 -9.999 -99.9 -99.99 -9.99
2019/05/25 22:48 EDT  -99.99 -99.99   18  151   20 -99.9 -99.9 1019.4 -9.9 -9.999 -99.9 -99.99 -9.99
2019/05/25 22:54 EDT  -99.99 -99.99   18  149   20 -99.9 -99.9 1019.2 -9.9 -9.999 -99.9 -99.99 -9.99
2019/05/25 23:00 EDT  -99.99 -99.99   17  151   20 -99.9 -99.9 1018.9 -9.9 -9.999 -99.9 -99.99 -9.99
2019/05/25 23:06 EDT  -99.99 -99.99   17  151   19 -99.9 -99.9 1019.0 -9.9 -9.999 -99.9 -99.99 -9.99
2019/05/25 23:12 EDT  -99.99 -99.99   16  149   19 -99.9 -99.9 1019.0 -9.9 -9.999 -99.9 -99.99 -9.99
2019/05/25 23:18 EDT  -99.99 -99.99   17  153   19 -99.9 -99.9 1019.0 -9.9 -9.999 -99.9 -99.99 -9.99
2019/05/25 23:24 EDT  -99.99 -99.99   16  154   18 -99.9 -99.9 1019.1 -9.9 -9.999 -99.9 -99.99 -9.99
2019/05/25 23:30 EDT  -99.99 -99.99   17  160   18 -99.9 -99.9 1019.1 -9.9 -9.999 -99.9 -99.99 -9.99
2019/05/25 23:36 EDT  -99.99 -99.99   16  159   19 -99.9 -99.9 1019.1 -9.9 -9.999 -99.9 -99.99 -9.99
2019/05/25 23:42 EDT  -99.99 -99.99   16  157   18 -99.9 -99.9 1019.1 -9.9 -9.999 -99.9 -99.99 -9.99
2019/05/25 23:48 EDT  -99.99 -99.99   16  157   19 -99.9 -99.9 1019.0 -9.9 -9.999 -99.9 -99.99 -9.99
2019/05/25 23:54 EDT  -99.99 -99.99   16  161   18 -99.9 -99.9 1018.9 -9.9 -9.999 -99.9 -99.99 -9.99
2019/05/26 00:00 EDT  -99.99 -99.99   16  161   18 -99.9 -99.9 1018.9 -9.9 -9.999 -99.9 -99.99 -9.99
2019/05/26 00:06 EDT  -99.99 -99.99   16  163   18 -99.9 -99.9 1018.9 -9.9 -9.999 -99.9 -99.99 -9.99
2019/05/26 00:12 EDT  -99.99 -99.99   17  163   18 -99.9 -99.9 1018.8 -9.9 -9.999 -99.9 -99.99 -9.99
2019/05/26 00:18 EDT  -99.99 -99.99   18  169   20 -99.9 -99.9 1018.6 -9.9 -9.999 -99.9 -99.99 -9.99
2019/05/26 00:24 EDT  -99.99 -99.99   19  171   22 -99.9 -99.9 1018.5 -9.9 -9.999 -99.9 -99.99 -9.99
2019/05/26 00:30 EDT  -99.99 -99.99   20  172   23 -99.9 -99.9 1018.4 -9.9 -9.999 -99.9 -99.99 -9.99
2019/05/26 00:36 EDT  -99.99 -99.99   20  171   24 -99.9 -99.9 1018.4 -9.9 -9.999 -99.9 -99.99 -9.99
2019/05/26 00:42 EDT  -99.99 -99.99   21  171   24 -99.9 -99.9 1018.3 -9.9 -9.999 -99.9 -99.99 -9.99
2019/05/26 00:48 EDT  -99.99 -99.99   21  173   23 -99.9 -99.9 1018.2 -9.9 -9.999 -99.9 -99.99 -9.99
2019/05/26 00:54 EDT  -99.99 -99.99   22  174   24 -99.9 -99.9 1018.1 -9.9 -9.999 -99.9 -99.99 -9.99
2019/05/26 01:00 EDT  -99.99 -99.99   21  173   24 -99.9 -99.9 1018.1 -9.9 -9.999 -99.9 -99.99 -9.99
2019/05/26 01:06 EDT  -99.99 -99.99   20  175   24 -99.9 -99.9 1017.9 -9.9 -9.999 -99.9 -99.99 -9.99
2019/05/26 01:12 EDT  -99.99 -99.99   20  177   22 -99.9 -99.9 1017.9 -9.9 -9.999 -99.9 -99.99 -9.99
2019/05/26 01:18 EDT  -99.99 -99.99   19  178   23 -99.9 -99.9 1017.9 -9.9 -9.999 -99.9 -99.99 -9.99
2019/05/26 01:24 EDT  -99.99 -99.99   18  180   21 -99.9 -99.9 1017.9 -9.9 -9.999 -99.9 -99.99 -9.99
2019/05/26 01:30 EDT  -99.99 -99.99   18  180   20 -99.9 -99.9 1018.0 -9.9 -9.999 -99.9 -99.99 -9.99
2019/05/26 01:36 EDT  -99.99 -99.99   16  177   19 -99.9 -99.9 1017.9 -9.9 -9.999 -99.9 -99.99 -9.99
2019/05/26 01:42 EDT  -99.99 -99.99   16  178   18 -99.9 -99.9 1017.8 -9.9 -9.999 -99.9 -99.99 -9.99
2019/05/26 01:48 EDT  -99.99 -99.99   16  178   18 -99.9 -99.9 1017.8 -9.9 -9.999 -99.9 -99.99 -9.99
2019/05/26 01:54 EDT  -99.99 -99.99   16  178   18 -99.9 -99.9 1017.7 -9.9 -9.999 -99.9 -99.99 -9.99
2019/05/26 02:00 EDT  -99.99 -99.99   16  179   18 -99.9 -99.9 1017.7 -9.9 -9.999 -99.9 -99.99 -9.99
2019/05/26 02:06 EDT  -99.99 -99.99   15  179   17 -99.9 -99.9 1017.8 -9.9 -9.999 -99.9 -99.99 -9.99
2019/05/26 02:12 EDT  -99.99 -99.99   17  185   20 -99.9 -99.9 1017.6 -9.9 -9.999 -99.9 -99.99 -9.99
2019/05/26 02:18 EDT  -99.99 -99.99   17  188   19 -99.9 -99.9 1017.7 -9.9 -9.999 -99.9 -99.99 -9.99
2019/05/26 02:24 EDT  -99.99 -99.99   17  188   20 -99.9 -99.9 1017.7 -9.9 -9.999 -99.9 -99.99 -9.99
2019/05/26 02:30 EDT  -99.99 -99.99   19  189   21 -99.9 -99.9 1017.7 -9.9 -9.999 -99.9 -99.99 -9.99
2019/05/26 02:36 EDT  -99.99 -99.99   17  189   19 -99.9 -99.9 1017.7 -9.9 -9.999 -99.9 -99.99 -9.99
2019/05/26 02:42 EDT  -99.99 -99.99   17  189   19 -99.9 -99.9 1017.7 -9.9 -9.999 -99.9 -99.99 -9.99
2019/05/26 02:48 EDT  -99.99 -99.99   18  188   20 -99.9 -99.9 1017.6 -9.9 -9.999 -99.9 -99.99 -9.99
2019/05/26 02:54 EDT  -99.99 -99.99   18  187   20 -99.9 -99.9 1017.4 -9.9 -9.999 -99.9 -99.99 -9.99
2019/05/26 03:00 EDT  -99.99 -99.99   17  190   20 -99.9 -99.9 1017.2 -9.9 -9.999 -99.9 -99.99 -9.99
2019/05/26 03:06 EDT  -99.99 -99.99   17  190   19 -99.9 -99.9 1017.2 -9.9 -9.999 -99.9 -99.99 -9.99
2019/05/26 03:12 EDT  -99.99 -99.99   16  190   19 -99.9 -99.9 1017.1 -9.9 -9.999 -99.9 -99.99 -9.99
2019/05/26 03:18 EDT  -99.99 -99.99   17  194   19 -99.9 -99.9 1017.2 -9.9 -9.999 -99.9 -99.99 -9.99
2019/05/26 03:24 EDT  -99.99 -99.99   17  195   18 -99.9 -99.9 1017.3 -9.9 -9.999 -99.9 -99.99 -9.99
2019/05/26 03:30 EDT  -99.99 -99.99   17  194   19 -99.9 -99.9 1017.4 -9.9 -9.999 -99.9 -99.99 -9.99
2019/05/26 03:36 EDT  -99.99 -99.99   16  191   18 -99.9 -99.9 1017.3 -9.9 -9.999 -99.9 -99.99 -9.99
2019/05/26 03:42 EDT  -99.99 -99.99   14  188   17 -99.9 -99.9 1017.3 -9.9 -9.999 -99.9 -99.99 -9.99
2019/05/26 03:48 EDT  -99.99 -99.99   15  186   17 -99.9 -99.9 1017.3 -9.9 -9.999 -99.9 -99.99 -9.99
2019/05/26 03:54 EDT  -99.99 -99.99   15  189   17 -99.9 -99.9 1017.2 -9.9 -9.999 -99.9 -99.99 -9.99
2019/05/26 04:00 EDT  -99.99 -99.99   11  189   15 -99.9 -99.9 1017.7 -9.9 -9.999 -99.9 -99.99 -9.99
2019/05/26 04:06 EDT  -99.99 -99.99    5  228   11 -99.9 -99.9 1017.7 -9.9 -9.999 -99.9 -99.99 -9.99
2019/05/26 04:12 EDT  -99.99 -99.99    6  253    7 -99.9 -99.9 1018.1 -9.9 -9.999 -99.9 -99.99 -9.99
2019/05/26 04:18 EDT  -99.99 -99.99    7  228    8 -99.9 -99.9 1018.1 -9.9 -9.999 -99.9 -99.99 -9.99
2019/05/26 04:24 EDT  -99.99 -99.99    7  230    8 -99.9 -99.9 1018.0 -9.9 -9.999 -99.9 -99.99 -9.99
2019/05/26 04:30 EDT  -99.99 -99.99    9  216   10 -99.9 -99.9 1017.9 -9.9 -9.999 -99.9 -99.99 -9.99
2019/05/26 04:36 EDT  -99.99 -99.99    8  216   10 -99.9 -99.9 1017.7 -9.9 -9.999 -99.9 -99.99 -9.99
2019/05/26 04:42 EDT  -99.99 -99.99    9  213   10 -99.9 -99.9 1017.7 -9.9 -9.999 -99.9 -99.99 -9.99
2019/05/26 04:48 EDT  -99.99 -99.99   11  206   12 -99.9 -99.9 1017.6 -9.9 -9.999 -99.9 -99.99 -9.99
2019/05/26 04:54 EDT  -99.99 -99.99   12  204   14 -99.9 -99.9 1017.5 -9.9 -9.999 -99.9 -99.99 -9.99
2019/05/26 05:00 EDT  -99.99 -99.99   11  207   12 -99.9 -99.9 1017.4 -9.9 -9.999 -99.9 -99.99 -9.99
2019/05/26 05:06 EDT  -99.99 -99.99   11  203   12 -99.9 -99.9 1017.4 -9.9 -9.999 -99.9 -99.99 -9.99
2019/05/26 05:12 EDT  -99.99 -99.99   11  202   12 -99.9 -99.9 1017.4 -9.9 -9.999 -99.9 -99.99 -9.99
2019/05/26 05:18 EDT  -99.99 -99.99   11  203   12 -99.9 -99.9 1017.3 -9.9 -9.999 -99.9 -99.99 -9.99
2019/05/26 05:24 EDT  -99.99 -99.99   11  207   12 -99.9 -99.9 1017.5 -9.9 -9.999 -99.9 -99.99 -9.99
2019/05/26 05:30 EDT  -99.99 -99.99   13  200   14 -99.9 -99.9 1017.3 -9.9 -9.999 -99.9 -99.99 -9.99
2019/05/26 05:36 EDT  -99.99 -99.99   13  198   15 -99.9 -99.9 1017.3 -9.9 -9.999 -99.9 -99.99 -9.99
2019/05/26 05:42 EDT  -99.99 -99.99   13  197   14 -99.9 -99.9 1017.2 -9.9 -9.999 -99.9 -99.99 -9.99
2019/05/26 05:48 EDT  -99.99 -99.99   12  197   13 -99.9 -99.9 1017.3 -9.9 -9.999 -99.9 -99.99 -9.99
2019/05/26 05:54 EDT  -99.99 -99.99   12  194   14 -99.9 -99.9 1017.4 -9.9 -9.999 -99.9 -99.99 -9.99
2019/05/26 06:00 EDT  -99.99 -99.99   13  197   14 -99.9 -99.9 1017.3 -9.9 -9.999 -99.9 -99.99 -9.99
2019/05/26 06:06 EDT  -99.99 -99.99   12  204   14 -99.9 -99.9 1017.3 -9.9 -9.999 -99.9 -99.99 -9.99
2019/05/26 06:12 EDT  -99.99 -99.99   12  199   14 -99.9 -99.9 1017.4 -9.9 -9.999 -99.9 -99.99 -9.99
2019/05/26 06:18 EDT  -99.99 -99.99   12  197   13 -99.9 -99.9 1017.5 -9.9 -9.999 -99.9 -99.99 -9.99
2019/05/26 06:24 EDT  -99.99 -99.99   11  195   13 -99.9 -99.9 1017.5 -9.9 -9.999 -99.9 -99.99 -9.99
2019/05/26 06:30 EDT  -99.99 -99.99   11  198   12 -99.9 -99.9 1017.6 -9.9 -9.999 -99.9 -99.99 -9.99
2019/05/26 06:36 EDT  -99.99 -99.99   10  200   12 -99.9 -99.9 1017.7 -9.9 -9.999 -99.9 -99.99 -9.99
2019/05/26 06:42 EDT  -99.99 -99.99   10  202   11 -99.9 -99.9 1017.8 -9.9 -9.999 -99.9 -99.99 -9.99
2019/05/26 06:48 EDT  -99.99 -99.99   10  206   11 -99.9 -99.9 1017.9 -9.9 -9.999 -99.9 -99.99 -9.99
2019/05/26 06:54 EDT  -99.99 -99.99    9  212   10 -99.9 -99.9 1017.9 -9.9 -9.999 -99.9 -99.99 -9.99
2019/05/26 07:00 EDT  -99.99 -99.99    9  215   10 -99.9 -99.9 1017.9 -9.9 -9.999 -99.9 -99.99 -9.99
2019/05/26 07:06 EDT  -99.99 -99.99   11  215   11 -99.9 -99.9 1017.9 -9.9 -9.999 -99.9 -99.99 -9.99
2019/05/26 07:12 EDT  -99.99 -99.99    9  213   11 -99.9 -99.9 1017.8 -9.9 -9.999 -99.9 -99.99 -9.99
2019/05/26 07:18 EDT  -99.99 -99.99    9  212   10 -99.9 -99.9 1017.9 -9.9 -9.999 -99.9 -99.99 -9.99
2019/05/26 07:24 EDT  -99.99 -99.99    9  215   10 -99.9 -99.9 1017.9 -9.9 -9.999 -99.9 -99.99 -9.99
2019/05/26 07:30 EDT  -99.99 -99.99    8  217    9 -99.9 -99.9 1017.9 -9.9 -9.999 -99.9 -99.99 -9.99
2019/05/26 07:36 EDT  -99.99 -99.99    7  218    9 -99.9 -99.9 1018.0 -9.9 -9.999 -99.9 -99.99 -9.99
2019/05/26 07:42 EDT  -99.99 -99.99    7  218    8 -99.9 -99.9 1018.0 -9.9 -9.999 -99.9 -99.99 -9.99
2019/05/26 07:48 EDT  -99.99 -99.99    7  208    7 -99.9 -99.9 1018.0 -9.9 -9.999 -99.9 -99.99 -9.99
2019/05/26 07:54 EDT  -99.99 -99.99    7  210    8 -99.9 -99.9 1018.0 -9.9 -9.999 -99.9 -99.99 -9.99
2019/05/26 08:00 EDT  -99.99 -99.99    7  214    8 -99.9 -99.9 1018.0 -9.9 -9.999 -99.9 -99.99 -9.99
2019/05/26 08:06 EDT  -99.99 -99.99    7  209    7 -99.9 -99.9 1018.0 -9.9 -9.999 -99.9 -99.99 -9.99
2019/05/26 08:12 EDT  -99.99 -99.99    7  212    7 -99.9 -99.9 1018.1 -9.9 -9.999 -99.9 -99.99 -9.99
2019/05/26 08:18 EDT  -99.99 -99.99    6  198    7 -99.9 -99.9 1018.2 -9.9 -9.999 -99.9 -99.99 -9.99
2019/05/26 08:24 EDT  -99.99 -99.99    7  189    7 -99.9 -99.9 1018.2 -9.9 -9.999 -99.9 -99.99 -9.99
2019/05/26 08:30 EDT  -99.99 -99.99    7  186    8 -99.9 -99.9 1018.1 -9.9 -9.999 -99.9 -99.99 -9.99
2019/05/26 08:36 EDT  -99.99 -99.99    8  189    8 -99.9 -99.9 1018.1 -9.9 -9.999 -99.9 -99.99 -9.99
2019/05/26 08:42 EDT  -99.99 -99.99    7  194    8 -99.9 -99.9 1018.1 -9.9 -9.999 -99.9 -99.99 -9.99
2019/05/26 08:48 EDT  -99.99 -99.99    7  194    7 -99.9 -99.9 1018.1 -9.9 -9.999 -99.9 -99.99 -9.99
2019/05/26 08:54 EDT  -99.99 -99.99    7  197    7 -99.9 -99.9 1018.1 -9.9 -9.999 -99.9 -99.99 -9.99
2019/05/26 09:00 EDT  -99.99 -99.99    7  198    7 -99.9 -99.9 1018.2 -9.9 -9.999 -99.9 -99.99 -9.99
2019/05/26 09:06 EDT  -99.99 -99.99    6  194    7 -99.9 -99.9 1018.2 -9.9 -9.999 -99.9 -99.99 -9.99
2019/05/26 09:12 EDT  -99.99 -99.99    7  189    7 -99.9 -99.9 1018.2 -9.9 -9.999 -99.9 -99.99 -9.99
2019/05/26 09:18 EDT  -99.99 -99.99 -999 -999 -999 -99.9 -99.9 -999.9 -9.9 -9.999 -99.9 -99.99 -9.99
2019/05/26 09:24 EDT  -99.99 -99.99 -999 -999 -999 -99.9 -99.9 -999.9 -9.9 -9.999 -99.9 -99.99 -9.99

Revised: 08/08/2018
NOAA / National Ocean Service
Web site owner: Center for Operational Oceanographic Products and Services